                ,  0.300,  0.400,  0.500,  0.600,  0.700,  0.800,  0.900,  1.000,  1.100,  1.200,  1.300,  1.400,  1.500,  1.600,  1.700,  1.800,  1.900,  2.000,  2.100,  2.200,  2.300,  2.400,  2.500,  2.600,  2.700,  2.800,  2.900,  3.000,  3.100,  3.200,  3.300,  3.400,  3.500,  3.600,  3.700,  3.800,  3.900,  4.000,  4.100,  4.200,  4.300,  4.400,  4.500,  4.600,  4.700,  4.800,  4.900,  5.000,  5.100,  5.200,  5.300,  5.400,  5.500,  5.600,  5.700,  5.800,  5.900,  6.000
2000/07/24 00:00,   -0.1,    0.0,    0.2,   -0.1,   -0.1,   -0.0,    0.1,    0.0,   -0.0,   -0.0,   -0.0,    0.1,    0.1,    0.0,    0.1,  999.0,    0.2,    0.3,   -0.1,  999.0,  999.0,  999.0,  999.0,  999.0,  999.0,   -5.6,   -5.5,   -5.7,  999.0,  999.0,  999.0,  999.0,  999.0,  999.0,  999.0,  999.0,  999.0,  999.0,  999.0,  999.0,  999.0,  999.0,  999.0,  999.0,  999.0,  999.0,  999.0,  999.0,    5.4,  999.0,  999.0,    5.6,    5.6,    5.6,  999.0,  999.0,    5.5,    5.5
2000/07/24 00:10,   -0.1,   -0.1,   -0.1,   -0.1,    0.1,    0.0,    0.1,    0.0,   -0.0,   -0.0,    0.0,    0.1,   -0.0,   -0.1,    0.1,   -0.1,  999.0,    0.1,  999.0,  999.0,  999.0,  999.0,  999.0,  999.0,  999.0,  999.0,   -5.5,   -5.7,  999.0,  999.0,  999.0,    5.6,    5.5,  999.0,  999.0,  999.0,    5.5,  999.0,  999.0,  999.0,  999.0,  999.0,  999.0,  999.0,  999.0,  999.0,    5.4,  999.0,    5.6,  999.0,    5.5,  999.0,    5.6,  999.0,    5.5,    5.4,    5.5,  999.0
2000/07/24 00:20,   -0.1,   -0.1,   -0.1,   -0.1,   -0.1,   -0.0,   -0.0,   -0.1,   -0.1,   -0.1,    0.0,    0.1,   -0.0,   -0.0,   -0.0,   -0.2,   -0.3,   -0.3,   -0.7,   -0.8,   -1.1,   -0.0,  999.0,  999.0,  999.0,   -5.6,  999.0,   -5.6,  999.0,  999.0,  999.0,    5.8,  999.0,    3.1,  999.0,  999.0,  999.0,    5.4,    5.4,  999.0,  999.0,  999.0,   -5.5,  999.0,  999.0,  999.0,    5.5,  999.0,    5.4,    5.6,    5.4,  999.0,    5.5,  999.0,  999.0,  999.0,    5.5,  999.0
2000/07/24 00:30,   -0.1,   -0.1,   -0.1,   -0.1,   -0.1,   -0.0,   -0.1,   -0.1,   -0.0,   -0.2,   -0.0,    0.1,   -0.0,    0.0,   -0.0,   -0.0,    0.0,    0.1,   -0.0,    0.1,   -0.3,  999.0,  999.0,   -5.6,   -5.6,  999.0,   -5.5,   -5.5,  999.0,  999.0,  999.0,    5.4,  999.0,  999.0,    5.5,    5.3,  999.0,  999.0,    5.5,  999.0,  999.0,  999.0,  999.0,  999.0,  999.0,  999.0,    5.7,  999.0,  999.0,    5.4,  999.0,  999.0,  999.0,    5.2,  999.0,    5.4,    5.5,  999.0
2000/07/24 00:40,   -0.1,   -0.1,   -0.1,   -0.1,   -0.1,   -0.0,   -0.1,   -0.1,   -0.1,   -0.1,   -0.0,    0.1,   -0.0,   -0.1,   -0.0,   -0.0,   -0.1,   -0.1,   -0.4,   -0.5,   -0.5,  999.0,  999.0,  999.0,   -5.5,   -5.3,  999.0,   -5.6,  999.0,  999.0,  999.0,    5.1,  999.0,  999.0,    5.4,    5.5,  999.0,  999.0,  999.0,    5.5,  999.0,  999.0,  999.0,  999.0,  999.0,  999.0,  999.0,    5.5,    5.3,  999.0,  999.0,    5.4,  999.0,    5.5,  999.0,  999.0,    5.6,    5.4
2000/07/24 00:50,   -0.1,    0.1,   -0.0,   -0.1,   -0.1,   -0.0,   -0.0,   -0.1,   -0.0,   -0.1,   -0.0,    0.1,    0.1,   -0.0,    0.0,   -0.0,   -0.1,   -0.1,   -0.2,   -0.1,  999.0,  999.0,  999.0,  999.0,  999.0,   -5.5,  999.0,   -5.5,  999.0,  999.0,  999.0,  999.0,  999.0,  999.0,  999.0,  999.0,  999.0,  999.0,  999.0,    5.6,  999.0,  999.0,  999.0,  999.0,  999.0,  999.0,    5.5,    5.5,  999.0,    5.5,  999.0,  999.0,    5.5,  999.0,    5.5,  999.0,  999.0,    5.5
2000/07/24 01:00,   -0.1,   -0.0,   -0.1,   -0.1,   -0.1,    0.0,    0.0,   -0.1,   -0.1,   -0.2,   -0.0,    0.1,   -0.0,   -0.1,   -0.0,   -0.1,   -0.0,   -0.1,  999.0,  999.0,  999.0,  999.0,  999.0,  999.0,  999.0,   -5.6,  999.0,  999.0,  999.0,  999.0,  999.0,  999.0,  999.0,  999.0,    5.5,    5.5,    5.5,    5.5,    5.5,  999.0,  999.0,  999.0,  999.0,  999.0,  999.0,  999.0,    5.4,  999.0,  999.0,  999.0,    5.4,  999.0,    5.5,  999.0,    5.6,  999.0,  999.0,  999.0
2000/07/24 01:10,   -0.1,   -0.1,   -0.1,   -0.1,   -0.2,    0.0,   -0.1,   -0.1,   -0.1,  999.0,    0.0,    0.1,   -0.0,   -0.1,   -0.1,   -0.0,   -0.2,    0.0,   -0.1,  999.0,  999.0,  999.0,    5.7,   -5.5,    5.5,    2.8,    2.7,  999.0,  999.0,    5.6,  999.0,  999.0,    5.4,  999.0,    5.6,    5.2,  999.0,  999.0,  999.0,    5.6,  999.0,  999.0,  999.0,    5.6,    5.5,  999.0,  999.0,  999.0,  999.0,  999.0,  999.0,  999.0,    5.5,  999.0,  999.0,    5.4,   -5.5,  999.0
2000/07/24 01:20,   -0.1,   -0.1,   -0.1,   -0.1,   -0.1,   -0.1,    0.0,    0.0,   -0.1,   -0.1,   -0.1,    0.1,    0.0,  999.0,    0.0,   -0.0,  999.0,    0.0,  999.0,  999.0,  999.0,  999.0,  999.0,  999.0,  999.0,  999.0,  999.0,   -5.4,  999.0,  999.0,  999.0,    5.5,  999.0,  999.0,    5.5,    5.8,    5.6,    5.4,  999.0,    5.4,  999.0,  999.0,  999.0,  999.0,  999.0,  999.0,  999.0,  999.0,    5.7,  999.0,  999.0,  999.0,  999.0,    5.6,  999.0,  999.0,  999.0,  999.0
2000/07/24 01:30,   -0.1,   -0.1,   -0.1,   -0.1,   -0.1,   -0.0,   -0.1,   -0.1,   -0.0,   -0.2,   -0.1,    0.1,    0.0,   -0.2,    0.1,  999.0,  999.0,   -0.2,  999.0,    0.4,   -0.7,  999.0,  999.0,  999.0,  999.0,   -5.6,   -5.3,   -5.5,  999.0,  999.0,  999.0,  999.0,    5.5,    5.5,  999.0,  999.0,    5.6,    5.5,  999.0,    5.6,  999.0,  999.0,  999.0,  999.0,  999.0,  999.0,  999.0,  999.0,    5.6,    5.4,  999.0,    5.2,    5.4,  999.0,  999.0,    5.5,  999.0,  999.0
2000/07/24 01:40,   -0.1,   -0.1,    0.0,   -0.1,   -0.1,    0.0,   -0.1,   -0.1,   -0.0,   -0.2,    0.1,    0.1,    0.0,    0.1,    0.0,   -0.0,  999.0,   -0.1,   -0.2,  999.0,   -0.1,  999.0,  999.0,  999.0,  999.0,  999.0,   -5.5,   -5.6,  999.0,  999.0,  999.0,  999.0,    5.7,    5.4,  999.0,    5.5,    5.5,    5.6,    5.7,  999.0,  999.0,  999.0,  999.0,  999.0,  999.0,  999.0,  999.0,    5.5,  999.0,  999.0,  999.0,  999.0,    5.5,    5.5,    5.5,    5.6,    5.6,  999.0
2000/07/24 01:50,   -0.0,   -0.1,   -0.0,   -0.1,   -0.0,    0.1,   -0.0,    0.0,   -0.0,   -0.2,    0.2,    0.1,   -0.0,  999.0,    0.0,   -0.0,  999.0,   -0.1,   -0.2,  999.0,    0.2,  999.0,  999.0,  999.0,  999.0,  999.0,   -5.5,   -5.4,  999.0,  999.0,  999.0,  999.0,    5.5,    5.4,    5.5,  999.0,  999.0,    5.6,  999.0,  999.0,  999.0,  999.0,  999.0,  999.0,  999.0,  999.0,    5.5,    5.5,    5.4,    5.5,  999.0,  999.0,  999.0,  999.0,    5.6,    5.6,    5.6,  999.0
2000/07/24 02:00,   -0.1,    0.1,   -0.1,   -0.1,   -0.1,   -0.0,    0.1,   -0.1,   -0.0,   -0.1,   -0.0,    0.1,    0.0,  999.0,    0.1,   -0.0,  999.0,   -0.0,  999.0,   -0.1,   -0.3,  999.0,  999.0,   -5.6,  999.0,   -5.6,  999.0,  999.0,  999.0,  999.0,  999.0,    5.5,    5.5,  999.0,    5.6,  999.0,  999.0,    5.6,    5.7,  999.0,  999.0,  999.0,  999.0,  999.0,  999.0,  999.0,  999.0,  999.0,    5.5,  999.0,    5.6,  999.0,    5.5,    5.7,    5.4,  999.0,    5.5,    5.5
2000/07/24 02:10,   -0.1,   -0.1,   -0.1,   -0.1,   -0.1,   -0.1,  999.0,   -0.1,   -0.1,   -0.2,   -0.0,    0.1,    0.0,  999.0,    0.0,   -0.1,  999.0,    0.0,   -0.2,   -0.2,   -0.6,  999.0,  999.0,  999.0,  999.0,  999.0,  999.0,  999.0,  999.0,  999.0,  999.0,  999.0,  999.0,    5.4,    5.5,    5.5,    5.5,    5.8,    5.6,    5.5,  999.0,  999.0,  999.0,  999.0,  999.0,  999.0,  999.0,  999.0,    5.5,  999.0,    5.4,    5.6,  999.0,  999.0,  999.0,    5.6,  999.0,  999.0
2000/07/24 02:20,   -0.1,    0.0,   -0.0,   -0.2,   -0.1,   -0.1,    0.0,   -0.1,   -0.0,   -0.0,   -0.1,    0.1,    0.0,    0.2,    0.1,   -0.1,  999.0,   -0.0,   -0.0,   -0.1,  999.0,  999.0,  999.0,  999.0,  999.0,  999.0,  999.0,  999.0,  999.0,  999.0,  999.0,    5.5,  999.0,  999.0,  999.0,    5.5,  999.0,  999.0,  999.0,  999.0,    5.4,  999.0,  999.0,  999.0,  999.0,  999.0,    5.4,  999.0,  999.0,  999.0,    5.6,  999.0,    5.4,  999.0,  999.0,    5.3,  999.0,  999.0
2000/07/24 02:30,   -0.1,   -0.1,    0.1,   -0.1,   -0.1,   -0.0,   -0.1,   -0.1,   -0.0,   -0.1,   -0.0,    0.1,    0.1,  999.0,    0.1,    0.1,  999.0,    0.0,  999.0,  999.0,   -0.6,  999.0,  999.0,  999.0,  999.0,   -5.4,  999.0,  999.0,  999.0,  999.0,  999.0,    5.6,  999.0,  999.0,    5.5,  999.0,  999.0,    5.3,  999.0,  999.0,  999.0,  999.0,  999.0,  999.0,  999.0,  999.0,  999.0,  999.0,  999.0,  999.0,  999.0,    5.6,  999.0,  999.0,  999.0,  999.0,    5.6,  999.0
2000/07/24 02:40,   -0.1,   -0.1,   -0.1,   -0.2,   -0.1,   -0.0,   -0.1,   -0.0,   -0.0,   -0.1,   -0.1,    0.1,    0.1,  999.0,    0.0,    0.1,  999.0,    0.0,  999.0,  999.0,  999.0,  999.0,  999.0,  999.0,  999.0,  999.0,  999.0,  999.0,  999.0,  999.0,  999.0,    5.4,    5.6,    5.5,  999.0,    5.4,    5.3,  999.0,    5.6,  999.0,  999.0,  999.0,  999.0,  999.0,  999.0,  999.0,  999.0,    5.4,    5.5,    5.6,  999.0,  999.0,  999.0,  999.0,  999.0,    5.6,  999.0,  999.0
2000/07/24 02:50,   -0.1,   -0.1,   -0.1,   -0.1,   -0.1,   -0.0,   -0.4,   -0.1,   -0.0,   -0.1,   -0.0,    0.1,    0.0,  999.0,    0.1,    0.1,  999.0,    0.0,  999.0,  999.0,  999.0,  999.0,   -5.5,  999.0,  999.0,  999.0,  999.0,  999.0,   -5.3,   -5.4,  999.0,    5.6,    5.5,    5.5,    0.0,  999.0,    5.5,  999.0,    5.5,  999.0,  999.0,  999.0,  999.0,  999.0,  999.0,  999.0,   -5.3,   -5.5,   -5.4,    5.6,  999.0,   -5.5,    5.6,  999.0,    0.1,    5.8,  999.0,  999.0
2000/07/24 03:00,   -0.1,   -0.1,   -0.0,   -0.1,   -0.1,   -0.0,    0.0,   -0.1,   -0.1,   -0.1,   -0.1,    0.1,    0.0,    0.1,    0.1,  999.0,  999.0,    0.0,  999.0,  999.0,  999.0,  999.0,  999.0,   -5.6,  999.0,    5.8,   -5.4,   -5.6,  999.0,    5.5,    5.6,    0.0,   -5.6,   -5.7,    5.5,    5.4,    1.9,  999.0,    5.5,    5.4,  999.0,  999.0,  999.0,  999.0,  999.0,  999.0,    5.5,    5.5,  999.0,    5.5,    5.5,    0.1,    5.6,    0.2,  999.0,    5.4,  999.0,  999.0
2000/07/24 03:10,   -0.0,   -0.1,   -0.1,   -0.1,   -0.1,   -0.1,   -0.1,   -0.1,   -0.1,   -0.1,   -0.1,    0.1,    0.0,  999.0,    0.1,    0.0,  999.0,    0.0,  999.0,    0.0,   -0.6,  999.0,  999.0,   -5.5,   -5.5,  999.0,  999.0,  999.0,  999.0,  999.0,  999.0,  999.0,  999.0,    5.7,    5.4,    5.4,    5.5,    5.6,  999.0,    5.6,  999.0,  999.0,  999.0,  999.0,  999.0,  999.0,  999.0,  999.0,  999.0,    5.5,  999.0,    5.6,    5.5,    5.5,    5.6,  999.0,  999.0,  999.0
2000/07/24 03:20,   -0.1,   -0.1,   -0.1,   -0.1,   -0.1,   -0.1,   -0.0,   -0.1,   -0.1,   -0.1,   -0.0,    0.1,   -0.0,   -0.2,    0.1,    0.1,  999.0,    0.0,   -0.1,  999.0,  999.0,  999.0,  999.0,  999.0,  999.0,   -5.5,  999.0,   -5.5,  999.0,  999.0,  999.0,  999.0,    5.6,    5.6,  999.0,    5.6,  999.0,  999.0,  999.0,  999.0,  999.0,  999.0,  999.0,  999.0,  999.0,  999.0,    5.5,    5.4,    5.5,  999.0,  999.0,  999.0,  999.0,    5.6,  999.0,  999.0,    5.6,    5.3
2000/07/24 03:30,   -0.1,   -0.1,   -0.1,   -0.1,   -0.1,   -0.1,   -0.1,   -0.1,   -0.1,   -0.1,   -0.1,    0.0,    0.0,  999.0,    0.1,   -0.1,  999.0,   -0.0,   -0.2,  999.0,  999.0,  999.0,  999.0,   -5.5,  999.0,   -5.7,  999.0,   -5.5,  999.0,  999.0,  999.0,    5.4,  999.0,  999.0,    5.5,    5.5,  999.0,    5.2,  999.0,    5.5,  999.0,  999.0,  999.0,  999.0,  999.0,  999.0,  999.0,    5.5,    5.6,  999.0,  999.0,  999.0,  999.0,  999.0,    5.6,    5.6,  999.0,    5.5
2000/07/24 03:40,   -0.1,   -0.1,   -0.1,   -0.2,   -0.1,   -0.1,   -0.1,   -0.1,    0.0,   -0.0,   -0.1,    0.1,    0.0,  999.0,    0.1,   -0.1,  999.0,    0.0,  999.0,   -0.4,  999.0,  999.0,  999.0,   -5.5,  999.0,  999.0,  999.0,  999.0,   -5.5,  999.0,  999.0,  999.0,  999.0,    5.5,  999.0,    5.5,  999.0,    5.6,  999.0,  999.0,  999.0,  999.0,  999.0,  999.0,  999.0,  999.0,  999.0,    5.5,    5.7,    5.5,  999.0,  999.0,  999.0,  999.0,    5.6,  999.0,  999.0,  999.0
2000/07/24 03:50,   -0.1,   -0.1,   -0.1,   -0.1,   -0.1,   -0.1,   -0.1,   -0.1,   -0.0,   -0.1,   -0.0,    0.1,    0.0,    0.0,    0.1,    0.1,  999.0,   -0.1,  999.0,  999.0,  999.0,  999.0,  999.0,    5.3,  999.0,    5.5,   -5.5,  999.0,    5.5,  999.0,    5.5,  999.0,  999.0,  999.0,  999.0,  999.0,    5.5,    5.5,    5.5,    5.6,  999.0,  999.0,    5.5,  999.0,  999.0,  999.0,  999.0,  999.0,  999.0,  999.0,  999.0,    5.4,  999.0,  999.0,    5.7,  999.0,  999.0,  999.0
2000/07/24 04:00,   -0.1,   -0.0,   -0.1,   -0.1,   -0.0,   -0.1,   -0.1,   -0.1,   -0.0,   -0.1,   -0.0,    0.1,   -0.0,  999.0,    0.1,   -0.1,  999.0,    0.1,  999.0,  999.0,  999.0,  999.0,  999.0,  999.0,  999.0,  999.0,  999.0,  999.0,  999.0,  999.0,  999.0,  999.0,    5.3,    5.4,  999.0,  999.0,  999.0,  999.0,    5.7,    5.5,  999.0,  999.0,  999.0,  999.0,  999.0,  999.0,  999.0,    5.5,    5.4,  999.0,  999.0,  999.0,    5.6,  999.0,  999.0,    5.5,  999.0,    5.5
2000/07/24 04:10,   -0.2,   -0.1,   -0.1,   -0.1,   -0.1,   -0.0,   -0.1,   -0.1,   -0.0,   -0.1,   -0.1,    0.1,    0.0,    0.1,    0.1,   -0.1,  999.0,   -0.0,  999.0,  999.0,  999.0,  999.0,  999.0,   -5.4,  999.0,   -5.4,  999.0,   -5.5,    5.4,   -5.6,  999.0,  999.0,  999.0,  999.0,  999.0,  999.0,    5.3,   -5.5,  999.0,   -0.0,    0.0,   -5.5,  999.0,   -5.5,  999.0,   -5.5,  999.0,    0.1,  999.0,    5.4,    5.5,  999.0,  999.0,  999.0,    5.4,    5.8,  999.0,  999.0
2000/07/24 04:20,   -0.1,   -0.1,   -0.1,   -0.1,   -0.1,   -0.0,   -0.0,   -0.1,   -0.1,   -0.1,   -0.1,    0.1,    0.0,  999.0,    0.1,    0.0,   -0.0,   -0.1,  999.0,   -0.2,  999.0,  999.0,  999.0,  999.0,   -5.6,   -5.7,  999.0,   -5.5,  999.0,  999.0,  999.0,    5.6,  999.0,    5.5,  999.0,  999.0,    5.4,    5.6,  999.0,  999.0,  999.0,  999.0,  999.0,  999.0,  999.0,  999.0,  999.0,    5.7,  999.0,    5.5,  999.0,  999.0,  999.0,  999.0,    5.5,    5.3,  999.0,    5.4
2000/07/24 04:30,   -0.1,   -0.1,   -0.1,   -0.1,   -0.1,   -0.1,   -0.1,   -0.1,   -0.1,   -0.1,   -0.1,    0.1,    0.0,  999.0,    0.1,    0.1,  999.0,   -0.1,  999.0,  999.0,  999.0,  999.0,    5.5,  999.0,    5.6,  999.0,   -5.4,  999.0,  999.0,  999.0,  999.0,    5.3,  999.0,  999.0,    5.4,  999.0,  999.0,    5.5,   -5.6,  999.0,  999.0,  999.0,    5.2,  999.0,   -5.5,   -5.6,    5.5,    0.1,  999.0,  999.0,    5.5,  999.0,    5.4,  999.0,    5.4,   -5.6,    5.4,    0.1
2000/07/24 04:40,   -0.2,   -0.1,   -0.1,   -0.1,   -0.0,   -0.0,   -0.1,   -0.1,   -0.1,   -0.0,   -0.1,    0.1,    0.0,  999.0,    0.1,   -0.0,  999.0,   -0.1,  999.0,   -0.5,    5.4,    0.1,   -5.5,  999.0,   -5.4,  999.0,   -5.3,   -5.7,   -5.4,   -5.5,  999.0,  999.0,  999.0,  999.0,  999.0,    5.3,    0.0,    5.6,  999.0,  999.0,  999.0,  999.0,  999.0,   -5.7,   -5.4,    5.6,  999.0,   -5.5,  999.0,    5.5,  999.0,  999.0,  999.0,  999.0,  999.0,  999.0,  999.0,  999.0
2000/07/24 04:50,   -0.1,   -0.1,   -0.0,   -0.1,   -0.1,   -0.0,    0.1,   -0.1,   -0.0,   -0.1,   -0.1,    0.1,    0.0,    0.0,    0.0,    0.1,    0.2,   -0.0,    0.0,  999.0,  999.0,  999.0,    5.6,    5.4,  999.0,  999.0,    5.5,    5.6,  999.0,    5.4,    5.6,  999.0,    5.5,  999.0,  999.0,  999.0,    5.4,  999.0,    5.4,    5.6,  999.0,    5.6,    5.5,    5.6,  999.0,    5.5,  999.0,    5.6,  999.0,  999.0,  999.0,  999.0,  999.0,    5.4,    5.5,    5.3,  999.0,  999.0
2000/07/24 05:00,   -0.1,   -0.1,   -0.1,   -0.1,   -0.1,   -0.1,  999.0,    0.1,   -0.1,   -0.2,   -0.1,    0.1,    0.0,    0.1,    0.1,    0.1,    0.0,   -0.1,   -0.2,   -0.1,   -0.1,    5.3,    5.5,    5.5,  999.0,  999.0,  999.0,  999.0,  999.0,  999.0,  999.0,  999.0,   -3.7,   -5.5,    5.3,  999.0,  999.0,    5.5,   -0.2,  999.0,  999.0,    5.4,  999.0,  999.0,    5.5,    5.6,  999.0,  999.0,    5.5,    5.5,   -5.5,  999.0,  999.0,  999.0,  999.0,  999.0,    5.3,    5.6
2000/07/24 05:10,   -0.1,    0.1,   -0.1,   -0.1,   -0.1,   -0.0,    0.0,   -0.2,   -0.0,   -0.0,   -0.1,    0.1,    0.0,  999.0,    0.1,    0.0,   -0.2,   -0.1,   -0.1,   -0.3,  999.0,  999.0,  999.0,    5.5,    5.4,  999.0,  999.0,  999.0,  999.0,  999.0,  999.0,  999.0,   -5.6,  999.0,    5.9,    5.8,    5.4,    5.5,    5.5,  999.0,  999.0,    5.5,  999.0,    5.4,  999.0,  999.0,  999.0,  999.0,    5.4,    5.2,  999.0,  999.0,  999.0,   -5.6,  999.0,  999.0,    5.6,  999.0
2000/07/24 05:20,   -0.1,    0.0,   -0.1,   -0.1,   -0.0,   -0.1,   -0.1,   -0.1,   -0.1,   -0.0,   -0.1,    0.1,    0.0,  999.0,    0.1,    0.1,   -0.2,   -0.1,    0.1,  999.0,  999.0,  999.0,  999.0,  999.0,  999.0,  999.0,  999.0,  999.0,  999.0,  999.0,  999.0,  999.0,  999.0,  999.0,    5.3,    5.7,    5.3,    5.7,  999.0,    5.6,  999.0,    5.7,    5.5,    5.5,  999.0,    5.7,  999.0,    5.5,    5.5,    5.5,  999.0,  999.0,  999.0,  999.0,  999.0,    5.6,  999.0,  999.0
2000/07/24 05:30,   -0.1,   -0.1,    0.1,   -0.1,   -0.0,   -0.1,   -0.1,   -0.2,   -0.1,   -0.2,   -0.1,    0.1,    0.0,  999.0,    0.1,    0.1,    0.0,    0.0,   -0.0,  999.0,  999.0,  999.0,  999.0,  999.0,    5.5,  999.0,  999.0,  999.0,  999.0,  999.0,  999.0,  999.0,  999.0,  999.0,  999.0,  999.0,    5.4,    5.6,  999.0,    5.5,    5.5,    5.7,    5.7,  999.0,  999.0,    5.5,  999.0,  999.0,  999.0,  999.0,  999.0,  999.0,  999.0,  999.0,  999.0,    5.4,    5.5,    5.5
2000/07/24 05:40,  999.0,  999.0,  999.0,    0.1,   -0.0,   -0.0,   -0.1,   -0.1,   -0.0,   -0.0,   -0.1,    0.1,    0.0,  999.0,    0.1,   -0.1,   -0.3,   -0.1,   -0.3,  999.0,  999.0,  999.0,  999.0,  999.0,  999.0,  999.0,  999.0,  999.0,  999.0,  999.0,  999.0,  999.0,  999.0,    5.6,  999.0,  999.0,  999.0,  999.0,  999.0,  999.0,  999.0,  999.0,  999.0,  999.0,    5.5,    5.5,    5.3,  999.0,  999.0,    5.5,    5.5,    5.5,  999.0,  999.0,  999.0,  999.0,    5.6,  999.0
2000/07/24 05:50,  999.0,  999.0,  999.0,  999.0,  999.0,  999.0,   -0.1,   -0.1,    0.0,   -0.0,   -0.0,    0.1,    0.1,  999.0,    0.1,    0.0,    0.1,    0.2,    0.1,  999.0,  999.0,  999.0,  999.0,  999.0,  999.0,  999.0,  999.0,  999.0,  999.0,  999.0,  999.0,  999.0,  999.0,  999.0,  999.0,  999.0,    5.4,    5.6,  999.0,  999.0,  999.0,  999.0,  999.0,  999.0,  999.0,    5.5,  999.0,  999.0,  999.0,  999.0,  999.0,    5.4,  999.0,  999.0,  999.0,  999.0,  999.0,  999.0
2000/07/24 06:00,  999.0,   -0.0,   -0.0,   -0.1,   -0.0,   -0.0,   -0.1,   -0.0,   -0.0,    0.0,   -0.0,    0.1,    0.0,    0.0,    0.1,   -0.0,    0.0,    0.0,    0.1,    0.1,  999.0,    5.4,  999.0,  999.0,  999.0,    5.6,   -5.5,   -5.6,   -5.6,  999.0,   -5.5,  999.0,   -5.6,  999.0,   -5.5,    5.6,  999.0,    5.6,  999.0,  999.0,    5.7,    5.6,    5.5,    5.6,  999.0,  999.0,    5.5,   -5.5,  999.0,  999.0,  999.0,  999.0,  999.0,  999.0,  999.0,   -5.7,  999.0,  999.0
2000/07/24 06:10,   -0.1,   -0.1,   -0.1,   -0.1,   -0.0,   -0.1,   -0.1,   -0.1,   -0.1,    0.0,   -0.0,    0.1,    0.0,  999.0,    0.0,   -0.0,   -0.0,   -0.0,    0.0,   -2.9,  999.0,  999.0,  999.0,    5.5,  999.0,  999.0,  999.0,   -5.6,  999.0,   -5.6,  999.0,    5.5,    5.3,  999.0,  999.0,    5.6,    5.6,  999.0,    5.4,    5.3,    5.7,    5.4,  999.0,  999.0,    5.6,  999.0,  999.0,  999.0,  999.0,  999.0,  999.0,    5.6,    5.5,  999.0,    5.5,    5.6,   -5.5,  999.0
2000/07/24 06:20,   -0.1,   -0.0,   -0.1,   -0.2,   -0.0,  999.0,   -0.0,   -0.1,   -0.0,   -0.1,   -0.1,    0.0,    0.0,  999.0,   -0.1,   -0.1,   -0.2,    1.6,   -0.4,   -0.5,    0.0,  999.0,    5.5,    5.4,    5.8,  999.0,  999.0,   -0.0,   -1.7,   -5.6,    5.4,    5.5,    5.4,  999.0,    5.4,    5.5,    5.5,    5.5,  999.0,    5.4,  999.0,  999.0,  999.0,  999.0,  999.0,  999.0,  999.0,    5.5,    5.6,    5.5,    5.7,  999.0,  999.0,  999.0,  999.0,  999.0,   -5.6,    5.6
2000/07/24 06:30,   -0.1,    0.0,   -0.1,   -0.1,   -0.1,   -0.0,   -0.1,   -0.1,   -0.1,   -0.1,   -0.1,    0.1,    0.0,    5.7,   -0.0,   -0.1,   -0.2,   -0.2,    0.0,  999.0,  999.0,    5.5,  999.0,    5.8,  999.0,  999.0,    5.5,  999.0,  999.0,    5.5,    5.5,    5.5,  999.0,  999.0,    5.6,    5.5,  999.0,    2.7,  999.0,    5.7,    5.6,  999.0,  999.0,   -5.5,  999.0,  999.0,    5.6,  999.0,    5.6,  999.0,  999.0,  999.0,  999.0,  999.0,  999.0,  999.0,  999.0,    0.1
2000/07/24 06:40,   -0.1,   -0.1,   -0.1,   -0.1,   -0.0,   -0.1,   -0.1,   -0.2,   -0.1,   -0.1,   -0.0,    0.1,    0.0,  999.0,   -0.0,   -0.0,   -0.1,    0.1,    5.5,   -0.1,    5.8,    5.2,    5.5,    5.5,  999.0,  999.0,    5.6,  999.0,  999.0,  999.0,  999.0,    5.3,    5.5,    5.5,    5.5,    5.5,    5.4,  999.0,    5.4,    5.5,    5.4,    5.4,  999.0,    5.6,  999.0,    5.4,  999.0,  999.0,    5.5,    5.6,  999.0,  999.0,  999.0,    5.4,  999.0,  999.0,   -5.5,   -5.7
2000/07/24 06:50,   -0.1,   -0.0,   -0.1,   -0.1,   -0.0,   -0.0,   -0.1,   -0.1,   -0.1,   -0.1,   -0.0,    0.0,    0.0,  999.0,    0.0,    0.1,   -0.2,   -0.3,    2.3,  999.0,    5.6,   -5.4,   -5.5,   -5.6,    5.5,   -5.4,  999.0,  999.0,   -5.5,    5.4,    5.5,  999.0,  999.0,  999.0,    5.4,  999.0,    5.5,   -5.6,    5.5,  999.0,    5.4,    5.5,    5.5,    5.4,  999.0,    5.8,    5.3,  999.0,    0.7,  999.0,  999.0,  999.0,    5.4,    5.5,    5.6,    5.6,  999.0,  999.0
2000/07/24 07:00,   -0.1,   -0.0,   -0.0,   -0.1,   -0.0,   -0.0,   -0.1,   -0.1,   -0.1,   -0.1,   -0.0,    0.1,    0.0,  999.0,    0.0,   -0.1,  999.0,   -0.2,    7.5,    5.4,  999.0,    5.5,    5.5,  999.0,    5.7,    5.4,  999.0,  999.0,   -0.1,   -5.6,  999.0,  999.0,  999.0,    5.4,  999.0,    5.4,  999.0,    5.4,    5.4,    5.4,  999.0,  999.0,  999.0,    5.5,   -5.5,  999.0,    5.5,  999.0,    5.6,  999.0,    5.6,  999.0,    5.4,    1.8,  999.0,  999.0,    5.4,  999.0
2000/07/24 07:10,   -0.1,   -0.0,   -0.1,   -0.1,   -0.0,   -0.0,   -0.1,   -0.2,   -0.1,   -0.1,   -0.0,    0.0,   -0.0,  999.0,    0.1,   -0.1,   -0.0,    0.0,   -0.4,   -0.3,  999.0,   -5.5,    5.5,    0.0,    5.6,    5.4,    5.4,    5.7,  999.0,   -5.6,    5.5,    5.6,    5.5,    5.5,  999.0,  999.0,  999.0,   -5.5,  999.0,    5.5,    0.0,    5.5,  999.0,  999.0,    5.5,  999.0,    5.6,  999.0,  999.0,    2.8,  999.0,  999.0,   -5.5,    5.5,   -5.7,  999.0,   -3.0,   -5.5
2000/07/24 07:20,   -0.1,   -0.0,   -0.1,   -0.1,   -0.0,   -0.1,   -0.1,   -0.2,   -0.1,   -0.3,   -0.0,    0.0,    0.0,   -0.1,    0.0,   -0.0,  999.0,   -0.0,   -0.4,   -0.3,   -5.5,  999.0,    2.3,    5.5,  999.0,  999.0,  999.0,    5.6,   -5.6,    1.9,    5.6,  999.0,  999.0,  999.0,   -5.5,  999.0,  999.0,    5.6,   -5.7,   -5.5,   -5.4,    5.6,    5.5,   -0.1,    5.5,    5.5,    5.6,    5.5,  999.0,    5.5,  999.0,    0.0,    5.4,    5.5,    5.5,  999.0,    2.8,  999.0
2000/07/24 07:30,   -0.0,   -0.0,    0.0,   -0.1,   -0.0,   -0.0,   -0.1,   -0.1,   -0.1,    0.0,   -0.0,    0.0,    0.0,   -0.1,    0.0,   -0.0,  999.0,   -0.1,   -0.2,   -0.0,   -5.4,  999.0,  999.0,  999.0,   -2.7,    0.0,  999.0,    3.7,  999.0,   -5.4,   -5.5,    0.0,  999.0,  999.0,   -5.4,    5.5,    5.5,  999.0,   -0.0,   -5.8,    5.3,    0.0,    5.5,   -9.3,  999.0,  999.0,  999.0,    0.0,  999.0,  999.0,    0.0,    5.5,    5.4,  999.0,  999.0,  999.0,    5.4,    5.3
2000/07/24 07:40,   -0.0,   -0.0,   -0.1,   -0.1,   -0.0,   -0.0,   -0.1,   -0.1,   -0.1,   -0.1,   -0.0,    0.1,    0.0,    0.1,    0.0,    0.0,  999.0,   -0.0,   -0.1,   -2.9,   -5.4,    1.8,   -0.0,   -1.6,   -0.0,    5.4,    5.7,   -2.8,   -5.4,    5.6,   -6.1,  999.0,  999.0,  999.0,  999.0,  999.0,  999.0,    0.0,    5.5,    5.5,    5.4,    1.9,    0.1,   -5.4,    0.0,  999.0,  999.0,  999.0,   -5.4,    5.3,    5.4,   -5.5,  999.0,    5.7,    5.4,  999.0,    5.6,    5.5
2000/07/24 07:50,   -0.1,   -0.0,   -0.1,   -0.1,   -0.0,   -0.1,   -0.0,   -0.1,   -0.1,   -0.0,   -0.0,    0.1,    0.0,  999.0,    0.0,   -0.0,  999.0,    0.1,   -0.0,   -1.2,   -5.5,    5.6,    5.7,   -5.4,   -5.5,    5.7,  999.0,    0.1,  999.0,   -0.0,    5.6,   -5.6,  999.0,  999.0,  999.0,    5.6,  999.0,    5.5,  999.0,   -5.5,   -1.9,    5.6,    0.0,    5.5,    5.4,    5.5,   -5.5,    5.7,    5.5,    5.4,   -5.5,   -0.0,  999.0,    0.0,    3.5,   -5.4,  999.0,  999.0
2000/07/24 08:00,   -0.0,   -0.0,   -0.1,   -0.1,   -0.0,   -0.1,   -0.1,   -0.1,   -0.0,   -0.0,   -0.1,    0.1,   -0.0,    1.1,    0.0,    0.0,  999.0,   -0.1,   -0.2,    2.4,    0.0,  999.0,    0.0,    5.5,    0.1,    2.7,   -0.1,  999.0,   -5.4,    1.9,    5.4,  999.0,    5.4,  999.0,  999.0,  999.0,    5.4,    1.9,   -5.6,  999.0,    5.4,  999.0,   -1.8,    0.1,  999.0,    5.5,    5.4,  999.0,   -0.1,   -5.5,   -5.4,    5.5,    5.6,  999.0,    5.4,   -5.5,    5.4,    0.1
2000/07/24 08:10,   -0.0,   -0.0,   -0.1,   -0.1,   -0.1,   -0.1,  999.0,   -0.1,   -0.1,   -0.2,   -0.1,    0.1,   -0.0,   -0.1,    0.1,    0.1,   -0.0,   -0.2,    0.0,  999.0,  999.0,  999.0,  999.0,  999.0,  999.0,    5.5,    5.6,    5.5,  999.0,  999.0,   -5.6,    5.5,    5.5,  999.0,    5.5,    5.6,  999.0,   -0.1,    5.5,   -0.1,  999.0,  999.0,    0.0,    5.7,    5.5,  999.0,  999.0,  999.0,    5.3,  999.0,    5.6,    5.5,    5.4,  999.0,    5.5,  999.0,  999.0,  999.0
2000/07/24 08:20,   -0.0,   -0.1,   -0.1,   -0.1,   -0.0,   -0.0,  999.0,   -0.1,   -0.1,   -0.2,   -0.1,    0.1,    0.0,   -0.1,    0.0,    0.0,  999.0,   -0.0,   -0.0,    0.1,  999.0,  999.0,  999.0,  999.0,    5.4,    5.5,    5.5,    0.0,    5.5,   -5.6,  999.0,    0.0,    2.8,  999.0,   -0.0,  999.0,    5.5,    5.5,    5.6,    0.0,  999.0,  999.0,    5.5,   -5.7,   -5.6,   -0.2,   -5.5,   -5.7,  999.0,    5.5,    0.0,   -0.0,   -5.5,  999.0,  999.0,    5.5,    5.6,   -5.5
2000/07/24 08:30,   -0.0,   -0.1,   -0.0,   -0.1,   -0.1,    0.0,   -0.1,   -0.1,   -0.0,   -0.2,    0.1,    0.0,   -0.0,  999.0,    0.0,   -0.1,  999.0,    0.0,   -0.1,   -0.3,  999.0,  999.0,  999.0,  999.0,  999.0,    5.6,    5.6,    5.6,   -5.7,    5.5,  999.0,  999.0,  999.0,  999.0,    5.6,    5.5,  999.0,   -5.7,    5.6,  999.0,  999.0,   -5.7,    5.9,  999.0,    1.9,    5.5,    2.8,    5.6,   -0.1,  999.0,    5.7,   -5.5,  999.0,  999.0,  999.0,  999.0,    5.6,  999.0
2000/07/24 08:40,   -0.1,   -0.1,   -0.0,   -0.1,   -0.1,    0.1,   -0.1,   -0.1,   -0.0,   -0.1,    0.0,    0.1,    0.0,  999.0,    0.1,   -0.0,  999.0,    0.0,    0.1,    0.0,   -5.6,   -2.7,   -5.5,   -5.7,  999.0,  999.0,  999.0,  999.0,    5.6,   -2.8,    5.4,  999.0,  999.0,  999.0,    5.4,    5.6,  999.0,   -0.0,  999.0,    5.6,  999.0,    5.4,    5.5,    5.6,  999.0,   -5.3,    5.6,    5.6,   -5.4,    5.5,    5.4,  999.0,  999.0,  999.0,    5.5,    5.4,    5.4,  999.0
2000/07/24 08:50,   -0.1,   -0.1,    0.0,   -0.1,   -0.1,    0.1,   -0.1,   -0.1,   -0.0,   -0.1,   -0.0,    0.0,    0.0,  999.0,    0.1,   -0.0,  999.0,   -0.1,   -0.1,    1.4,  999.0,  999.0,   -5.4,  999.0,    5.1,    5.6,   -5.5,    5.5,  999.0,   -5.6,    5.4,    5.6,  999.0,    5.6,    2.8,    0.0,   -5.5,  999.0,    5.7,    5.4,    5.5,   -1.8,    5.5,  999.0,   -5.5,  999.0,  999.0,   -5.6,    5.7,  999.0,    5.6,  999.0,  999.0,   -5.5,    5.6,   -5.7,   -5.5,  999.0
2000/07/24 09:00,    0.1,   -0.0,   -0.1,   -0.1,   -0.0,    0.1,   -0.1,   -0.1,   -0.0,   -0.3,   -0.0,    0.1,    0.0,    0.0,    0.1,   -0.2,    5.3,    0.1,    0.0,    0.9,   -5.5,   -5.6,  999.0,   -5.5,    0.0,   -1.8,    5.5,  999.0,   -5.6,    0.1,   -5.5,   -5.5,   -1.9,  999.0,    7.1,    5.5,   -5.4,  999.0,    5.7,    5.3,  999.0,    5.5,   -1.8,    5.6,  999.0,    5.5,   -1.8,    5.5,    5.7,    5.5,  999.0,    5.6,  999.0,    5.4,    5.5,   -5.7,    5.5,   -5.6
2000/07/24 09:10,    0.0,   -0.0,   -0.1,   -0.1,   -0.0,    0.1,  999.0,   -0.0,    0.0,    0.1,    0.1,    0.0,    0.1,  999.0,    0.1,   -2.6,   -5.6,   -0.1,   -0.0,   -0.9,   -5.6,   -3.5,   -5.5,    0.0,  999.0,   -5.7,    3.7,   -0.1,   -5.4,   -5.6,    5.5,   -5.5,    5.5,    5.6,   -5.5,  999.0,    5.4,   -1.9,    5.5,   -5.5,    5.5,  999.0,  999.0,    5.4,  999.0,   -2.0,    5.6,   -5.7,    5.5,    0.1,  999.0,  999.0,    5.5,   -5.4,    2.7,  999.0,    5.6,    1.8
2000/07/24 09:20,    0.0,    0.0,    0.1,    0.0,    0.1,    0.0,   -0.2,    0.0,   -0.0,    0.1,    0.0,    0.0,    0.1,    2.7,    0.1,   -2.6,   -5.5,    5.5,   -0.0,   -0.0,   -1.9,    1.8,    5.4,  999.0,  999.0,    5.6,  999.0,    5.6,   -5.5,   -0.0,    5.5,    5.5,   -5.6,    5.5,    5.5,    5.6,    5.5,  999.0,    5.3,    5.5,    5.3,    5.5,   -0.0,  999.0,   -0.1,    1.8,    5.5,    5.6,    5.7,    5.6,    5.3,   -5.4,   -5.4,    5.4,    0.1,   -5.3,    5.4,   -0.1
2000/07/24 09:30,   -0.3,  999.0,   -0.0,    0.0,   -0.0,    0.0,   -0.1,    0.1,   -0.0,  999.0,    0.0,    0.1,    0.1,  999.0,    0.1,  999.0,   -0.0,    2.7,    0.1,   -0.0,  999.0,    1.4,   -5.6,   -5.4,   -0.1,    5.5,    5.6,    5.5,    5.5,    5.4,  999.0,   -0.0,   -5.5,    5.4,   -5.4,  999.0,    5.5,    5.8,  999.0,   -5.5,  999.0,   -0.0,    5.5,  999.0,    1.7,  999.0,   -0.2,    1.9,    5.5,    5.6,   -0.0,   -5.5,    5.6,   -3.7,    5.4,    5.5,   -5.6,  999.0
2000/07/24 09:40,   -0.4,   -0.6,   -0.2,   -0.4,   -0.2,   -0.4,   -0.1,   -0.3,   -0.1,   -0.0,   -0.2,   -0.0,    0.1,    5.5,    0.1,   -5.6,    5.4,   -5.5,   -1.0,   -1.9,    0.0,  999.0,    5.3,  999.0,   -5.5,    5.5,    0.0,    0.0,   -5.4,  999.0,  999.0,   -5.5,    5.7,   -1.9,    5.5,  999.0,    5.4,  999.0,    5.5,  999.0,    5.6,    5.5,    5.5,  999.0,    0.0,    5.6,    5.4,  999.0,    5.5,    2.7,   -5.5,   -5.5,    0.1,   -0.0,    5.4,    1.8,    5.6,   -5.5
2000/07/24 09:50,   -0.1,   -0.2,   -0.2,   -0.2,    0.0,   -0.1,   -0.3,   -0.1,    0.0,   -0.1,   -0.0,   -0.0,    0.1,  999.0,    0.1,    0.0,   -5.5,    5.5,    2.7,    0.2,  999.0,    0.3,    5.7,  999.0,    5.6,    5.5,    1.8,    5.6,    5.5,    5.5,    0.0,    5.5,    5.5,    5.7,   -5.8,    5.3,    5.5,    5.5,   -5.4,    5.6,   -5.5,    5.4,    5.6,    5.5,    5.5,    5.5,    5.4,  999.0,    5.5,   -0.1,    5.5,    5.4,    5.4,    0.1,   -5.4,    1.9,    5.5,  999.0
2000/07/24 10:00,   -0.0,   -0.2,   -0.6,   -0.6,   -0.2,   -0.2,   -0.2,   -0.3,   -0.1,   -0.1,    0.0,    0.0,    0.1,    0.2,    0.1,  999.0,   -5.5,    0.1,    1.5,    0.0,   -0.0,   -2.8,   -5.5,  999.0,    5.5,  999.0,    0.0,   -5.5,    5.6,    0.0,    0.0,   -1.9,   -5.4,   -0.1,    1.9,    5.5,    2.8,    5.6,    5.4,   -5.5,   -0.0,   -5.4,    5.4,   -5.6,    5.5,  999.0,    0.0,   -5.5,   -5.5,   -5.5,   -5.6,   -5.5,   -5.6,  999.0,  999.0,    5.6,   -5.6,    0.1
2000/07/24 10:10,   -0.0,   -0.1,   -0.2,   -0.2,   -0.0,    0.1,   -0.0,   -0.1,   -0.1,   -0.2,   -0.1,   -0.3,    0.1,    0.1,    0.1,    2.7,   -5.5,   -5.5,   -0.1,   -0.0,    0.0,    0.0,    0.1,    5.5,    5.5,    5.4,   -5.3,    5.5,  999.0,    0.1,  999.0,  999.0,    1.9,    5.6,   -0.0,    1.8,    5.4,   -5.3,    0.0,    1.8,  999.0,    2.7,  999.0,    5.6,   -5.5,  999.0,   -5.5,   -0.0,   -5.5,    5.5,    5.4,    5.6,    0.1,  999.0,   -5.4,   -0.1,   -5.4,    5.4
2000/07/24 10:20,   -0.0,   -0.3,   -0.8,   -0.7,   -0.3,   -0.2,   -0.4,   -0.4,   -0.1,   -0.2,   -0.1,  999.0,    0.0,   -0.1,   -0.0,   -0.0,    5.5,    5.4,    0.1,    0.0,    0.0,    0.1,    0.1,  999.0,  999.0,  999.0,  999.0,  999.0,    5.3,  999.0,    5.4,    5.5,    5.3,    0.1,    5.6,    0.0,    5.5,  999.0,    5.5,   -5.4,  999.0,    5.4,    5.4,  999.0,  999.0,   -5.5,  999.0,   -0.1,   -5.2,  999.0,   -0.1,  999.0,    1.8,   -5.4,   -5.5,   -1.8,    5.7,   -1.8
2000/07/24 10:30,   -0.0,   -1.4,   -0.2,   -0.3,   -0.2,    0.0,    0.1,   -0.2,   -0.2,   -0.2,   -0.3,  999.0,   -0.0,   -0.0,    0.1,    0.1,   -0.1,  999.0,    0.1,    0.0,    0.1,    2.8,    5.7,  999.0,  999.0,    5.4,   -5.4,  999.0,  999.0,    1.8,    5.5,    0.1,    5.6,    5.4,  999.0,    5.6,    4.4,   -0.1,    5.5,  999.0,  999.0,   -0.0,    5.5,   -5.4,    5.5,    5.5,    5.4,   -5.4,  999.0,    5.4,    5.4,    5.5,    5.5,  999.0,  999.0,    0.1,  999.0,   -5.4
2000/07/24 10:40,   -0.0,   -0.1,    0.0,    0.0,    0.1,    0.0,    0.1,   -0.1,   -0.0,   -0.0,   -0.0,   -0.1,    0.0,   -0.0,    0.2,    0.2,   -0.1,   -0.7,    0.0,    0.1,   -0.0,    0.0,   -5.6,  999.0,  999.0,  999.0,    5.6,   -1.8,    5.5,   -0.0,  999.0,   -0.0,  999.0,  999.0,    0.1,   -0.0,  999.0,    5.5,    5.3,    0.1,   -5.5,    3.7,    5.5,   -5.6,  999.0,    2.7,    5.4,    5.4,  999.0,  999.0,  999.0,   -5.4,  999.0,    5.6,  999.0,   -5.5,  999.0,  999.0
2000/07/24 10:50,    0.0,   -0.0,    0.1,    0.0,   -0.1,    0.0,   -0.0,   -0.3,   -0.1,   -0.2,   -0.2,   -0.3,   -0.1,   -0.1,   -0.0,   -0.0,  999.0,    1.4,   -2.7,    1.4,    0.2,    0.1,    0.3,   -5.5,    9.4,   -5.5,  999.0,    5.5,    2.6,  999.0,   -5.6,    5.6,    5.6,    5.5,    0.0,   -1.8,    0.1,    5.6,   -5.5,   -0.1,    5.4,    5.5,    5.4,    0.0,  999.0,   -0.0,   -5.5,  999.0,  999.0,   -2.8,    1.9,    5.5,   -5.5,   -0.0,   -0.1,    0.1,    5.5,   -0.1
2000/07/24 11:00,   -0.1,   -0.0,    0.0,   -0.1,    0.3,    0.1,    0.0,   -0.0,    0.1,   -0.1,   -0.1,   -0.1,   -0.1,   -0.2,   -0.2,   -0.1,   -0.1,    1.8,  999.0,    0.1,    0.2,    0.1,   -2.7,   -5.5,  999.0,   -0.0,    5.5,    5.5,   -5.5,   -5.6,   -5.6,    5.5,   -5.5,    5.5,    0.0,    0.0,   -5.6,   -0.0,   -2.7,   -0.0,    5.4,   -0.1,    0.0,    1.9,    5.5,   -2.8,    5.6,    5.5,   -5.5,   -1.9,  999.0,   -0.0,    0.1,   -5.4,   -0.0,    5.6,    5.5,    5.6
2000/07/24 11:10,   -0.0,   -0.0,    0.0,   -0.0,    0.0,    0.1,    0.0,   -0.5,   -0.2,   -0.1,   -0.2,   -0.2,   -0.0,    0.1,   -0.0,    0.1,   -2.8,   -5.5,    2.7,   -3.6,   -0.1,   -0.1,   -1.8,   -1.8,    5.5,   -5.5,   -5.5,    0.1,    5.5,    5.6,    5.5,    5.6,   -1.8,  999.0,    5.5,   -2.6,  999.0,    5.5,   -5.6,    0.0,   -5.7,   -5.5,    5.5,    1.8,    1.9,    5.6,    5.6,   -5.5,   -5.5,    5.6,   -5.5,   -2.8,    5.5,   -5.6,   -0.0,    5.5,  999.0,   -0.0
2000/07/24 11:20,    0.1,   -0.1,    0.0,   -0.2,   -0.0,    0.1,    0.1,    0.2,    0.1,    0.1,   -0.1,   -0.2,   -0.0,   -0.3,   -0.2,   -0.2,   -2.7,   -5.6,    5.5,    0.2,    0.2,    1.9,    2.0,   -2.7,   -5.5,  999.0,   -5.5,   -5.5,   -2.8,    5.5,    5.5,    5.5,   -5.5,    5.6,    5.4,   -0.0,    2.8,   -5.5,    5.6,    1.9,   -1.8,    5.6,    0.3,    5.5,   -5.5,    5.6,    0.0,   -0.1,   -5.4,   -4.3,    5.5,   -0.1,    5.5,    5.5,    0.1,   -5.5,   -5.5,   -0.0
2000/07/24 11:30,   -0.0,   -0.1,   -0.1,   -0.1,   -0.0,    0.1,    0.0,   -0.0,   -0.0,   -0.1,   -0.2,   -0.1,   -0.1,   -0.1,   -0.1,   -0.9,   -0.9,   -1.5,   -0.1,    0.0,   -0.1,    0.0,    5.5,   -5.6,    0.1,    5.6,    5.6,   -1.9,   -5.4,   -5.4,   -1.8,   -5.4,   -6.0,   -0.0,    1.9,    2.9,   -0.0,   -0.0,   -5.4,   -0.0,   -1.8,   -5.5,   -5.5,  999.0,    0.1,   -5.5,    1.9,    4.2,  999.0,    5.5,    2.0,    3.7,   -0.2,    5.4,    2.8,   -5.5,   -3.6,   -5.6
2000/07/24 11:40,   -0.0,   -0.1,   -0.1,   -0.1,   -0.0,    0.2,    0.1,    0.0,   -0.1,   -0.0,   -0.1,   -0.3,   -0.3,   -0.4,   -0.4,   -0.2,   -0.1,   -5.7,   -2.6,    1.9,  999.0,    3.8,   -1.8,    2.7,    2.8,    5.6,   -0.1,    2.8,    1.9,    1.9,    0.0,   -2.7,   -0.2,   -5.6,    5.6,    0.0,    0.0,  999.0,   -5.6,   -2.7,    2.7,   -1.9,   -5.8,  999.0,    0.0,    2.7,    1.8,    5.5,   -2.0,   -0.0,    0.1,   -1.8,    0.0,    3.9,   -1.9,   -5.6,   -5.5,   -5.5
2000/07/24 11:50,   -0.0,   -0.0,   -0.1,   -0.1,   -0.0,   -0.0,   -0.1,   -0.2,   -0.2,   -0.2,   -0.2,   -0.2,   -0.1,    0.0,    0.1,   -1.8,   -0.7,    5.5,   -1.8,    0.9,  999.0,   -1.5,    3.6,  999.0,  999.0,   -0.1,   -5.6,  999.0,   -5.6,   -5.6,    5.5,   -1.8,    1.9,    1.9,    2.8,    2.7,    1.8,    1.8,    3.1,  999.0,   -5.5,    5.5,    1.9,   -1.9,    5.4,   -0.0,    5.5,  999.0,  999.0,  999.0,  999.0,   -0.4,    1.8,    0.0,   -1.9,   -0.1,   -1.7,   -5.5
2000/07/24 12:00,   -0.0,   -0.0,   -0.0,    0.1,    0.0,    0.0,   -0.0,    0.1,   -0.2,    0.0,   -0.2,   -0.2,   -0.0,   -0.0,  999.0,    0.0,   -0.2,   -0.5,   -0.1,   -0.0,   -0.2,   -0.3,    0.1,    5.5,   -5.5,   -0.0,    5.6,    0.0,    5.5,   -5.7,   -2.8,  999.0,   -5.5,    5.5,   -5.5,    0.0,    0.0,   -0.1,  999.0,   -5.7,  999.0,   -5.5,   -5.5,   -5.5,   -5.6,    5.6,   -0.0,   -5.6,   -5.3,   -5.4,    5.5,  999.0,    5.6,    5.5,    0.0,   -5.5,   -5.6,   -5.5
2000/07/24 12:10,   -0.0,   -0.1,   -0.1,   -0.1,   -0.0,    0.1,   -0.0,    0.1,   -0.0,    0.0,   -0.1,   -0.2,   -0.2,   -0.1,    0.0,    0.1,    0.1,    5.5,   -0.0,    2.8,    1.8,    0.2,   -1.4,    0.1,   -5.5,   -5.4,    5.5,    3.5,    0.0,   -0.0,    5.5,    0.1,    5.3,   -5.5,    3.7,    3.6,   -5.4,   -0.0,    2.7,    5.5,   -5.5,    5.5,  999.0,    0.0,    5.4,  999.0,  999.0,   -0.0,    5.5,  999.0,    5.5,   -5.5,    5.5,    3.7,   -0.0,    5.5,   -5.6,    0.1
2000/07/24 12:20,   -0.1,    0.0,   -0.1,   -0.0,    0.0,   -0.0,   -0.1,   -0.1,   -0.1,    0.0,   -0.1,  999.0,   -0.0,   -0.1,   -0.3,   -0.4,   -0.2,   -2.8,   -1.5,    0.1,    2.7,   -0.6,    0.0,    1.4,    2.8,    4.1,    0.1,    3.7,   -0.0,   -5.5,   -5.4,   -5.6,    2.8,    3.7,    0.1,   -5.5,    0.0,    5.5,   -4.7,    5.5,    5.5,    5.4,   -1.9,   -5.6,    1.9,    0.1,   -5.6,   -5.5,   -5.6,    5.5,    1.9,   -5.4,    0.1,    5.5,    5.5,    0.1,   -5.4,   -5.6
2000/07/24 12:30,   -0.0,   -0.9,   -0.1,   -0.1,   -0.0,    0.0,   -0.0,   -0.1,   -0.1,    0.0,   -0.0,    0.1,   -0.2,   -0.0,    0.0,    0.1,    0.3,  999.0,   -0.0,    0.0,    0.0,   -0.1,    2.8,   -0.3,    0.7,  999.0,   -0.0,  999.0,   -5.5,   -5.5,    5.4,   -5.6,   -5.6,    5.5,  999.0,    5.4,    5.5,    2.8,    5.5,    5.7,    5.4,   -5.6,    0.0,    0.0,  999.0,    5.5,  999.0,  999.0,   -0.2,    5.5,    5.4,    5.4,    6.8,    5.5,    5.4,    5.6,   -5.6,   -5.5
2000/07/24 12:40,   -0.0,   -0.0,   -0.1,   -0.1,    0.0,   -0.1,    0.0,   -0.1,   -0.1,    0.0,   -0.1,   -0.2,   -0.1,   -0.1,    0.0,    0.1,    0.2,    0.2,    0.1,    5.7,   -0.0,   -0.0,   -2.7,   -5.6,    5.5,    5.5,  999.0,    5.5,    2.7,   -0.1,  999.0,    5.5,    5.4,  999.0,    2.9,  999.0,    5.5,    5.4,  999.0,    5.5,    5.5,   -5.5,  999.0,    5.4,   -0.1,  999.0,    5.4,    5.4,    5.5,    5.5,    5.4,    5.4,    5.5,  999.0,    2.7,    5.6,    5.5,  999.0
2000/07/24 12:50,   -0.0,    0.0,   -0.0,   -0.0,   -0.0,    0.1,   -0.0,   -0.1,   -0.0,    0.0,    0.1,    0.0,   -0.0,   -0.4,   -0.6,   -0.6,   -0.9,   -3.5,    5.5,   -1.8,   -5.7,    0.2,    5.5,    0.0,   -1.8,    5.5,    5.5,    5.5,  999.0,    5.5,  999.0,  999.0,   -5.3,    5.5,    5.4,    5.5,    5.4,    5.5,    5.5,    5.5,    5.5,    5.5,  999.0,   -0.0,    5.5,    5.5,    5.6,    5.6,    5.5,    5.4,    5.5,    5.5,    5.5,    5.5,    5.5,    0.1,    5.5,   -5.4
2000/07/24 13:00,   -0.0,   -0.0,   -0.0,   -0.0,   -0.1,    0.1,   -0.0,   -0.1,   -0.0,    0.0,    0.1,   -0.1,   -0.2,   -0.2,   -0.2,   -0.3,   -0.4,   -0.1,    0.1,   -0.0,   -1.7,    0.2,    2.8,    1.4,    2.8,  999.0,  999.0,   -5.5,    0.1,    5.5,  999.0,   -5.5,  999.0,    1.8,    5.5,  999.0,    1.8,  999.0,    1.8,    2.0,  999.0,   -5.5,   -5.4,  999.0,   -0.0,   -2.8,    5.5,    1.8,    1.3,  999.0,    5.5,  999.0,    5.5,    0.1,   -0.0,  999.0,  999.0,  999.0
2000/07/24 13:10,   -0.0,  999.0,    0.0,   -0.8,   -0.4,   -0.2,   -0.3,   -0.4,   -0.3,   -0.0,   -0.1,   -0.1,   -0.1,   -0.2,   -0.1,    0.1,  999.0,  999.0,    0.0,   -1.3,    1.4,    0.2,    0.0,    0.2,   -0.0,    5.4,   -5.6,    0.0,   -5.4,   -0.1,   -3.7,    0.0,  999.0,    5.5,    5.5,   -0.0,   -0.0,   -0.0,    1.8,    5.6,   -5.5,   -0.0,    5.5,    1.8,   -0.1,    5.6,    5.6,   -5.4,   -5.4,   -0.1,   -0.0,    5.5,    5.5,    5.5,    5.6,    2.8,    5.4,   -5.6
2000/07/24 13:20,   -0.6,  999.0,   -0.2,   -0.4,   -0.0,   -0.4,   -0.3,   -0.7,   -0.7,   -0.5,   -0.5,   -0.3,   -0.1,    0.0,    0.3,    0.0,    2.7,    5.5,    1.0,    0.1,    0.4,    0.3,    0.2,    0.1,    5.5,   -5.5,   -2.7,   -5.5,   -5.5,   -5.5,    5.6,   -5.5,    0.0,    5.6,    5.5,    0.0,  999.0,    0.1,  999.0,    5.5,   -5.5,   -5.6,  999.0,   -5.5,   -5.4,   -5.5,  999.0,   -0.0,  999.0,    0.1,    5.5,  999.0,    5.6,    5.5,  999.0,   -5.5,  999.0,   -0.3
2000/07/24 13:30,   -0.0,   -0.2,   -0.0,   -0.4,   -0.2,   -0.0,   -0.1,   -0.3,   -0.3,   -0.0,   -0.1,   -0.2,   -0.2,   -0.2,   -0.2,   -0.1,   -0.4,    2.6,   -0.2,    0.0,   -0.1,    0.0,   -0.0,    1.8,   -5.6,   -5.5,   -5.7,   -5.4,   -5.5,    2.7,    5.5,  999.0,    5.5,    5.5,    5.6,    5.4,  999.0,    5.5,    5.5,    5.4,  999.0,  999.0,   -5.6,   -5.5,    5.6,    5.5,    5.5,    5.5,    5.6,    5.5,  999.0,    5.4,  999.0,   -5.7,   -5.5,   -5.6,    5.5,    5.5
2000/07/24 13:40,   -0.1,  999.0,    0.1,   -0.2,   -0.2,   -0.1,   -0.1,   -0.1,   -0.1,   -0.0,   -0.2,   -0.3,   -0.2,   -0.2,   -0.1,    2.8,    0.1,    0.3,    2.8,    0.1,    0.0,    2.0,    0.1,    1.8,   -0.2,    5.5,   -5.4,   -5.4,  999.0,    5.6,    0.1,    5.5,   -5.5,   -0.1,   -5.6,   -0.0,   -5.7,    5.6,    0.1,    0.1,   -5.5,  999.0,   -5.5,   -0.0,    5.6,   -1.9,    5.5,    1.8,    5.5,    2.8,    5.5,  999.0,    5.4,    5.5,  999.0,    0.0,    3.6,    5.5
2000/07/24 13:50,   -0.1,   -0.1,  999.0,   -0.8,   -0.2,   -0.1,   -0.1,   -0.2,   -0.1,   -0.0,   -0.2,   -0.2,   -0.3,   -0.3,   -0.3,   -0.2,   -0.6,   -2.8,    2.8,    0.2,  999.0,    0.2,   -5.2,   -0.0,   -3.6,   -5.4,    5.4,    5.4,    5.3,    5.4,    7.5,    5.4,    5.4,   -5.4,   -5.4,    5.5,    0.0,    5.6,    1.9,   -5.5,   -0.0,   -5.4,   -6.7,   -0.1,    5.5,   -5.4,    5.5,   -1.9,  999.0,   -5.4,    5.5,   -5.3,   -1.8,   -5.4,  999.0,   -5.4,   -5.5,    0.0
2000/07/24 14:00,   -0.1,  999.0,   -0.0,   -0.6,   -0.3,   -0.4,   -0.2,   -0.4,   -0.1,    0.0,   -0.1,   -0.2,   -0.3,   -0.4,   -0.5,   -0.5,   -0.3,   -2.8,    0.1,    4.6,  999.0,   -2.7,    1.8,   -5.4,   -1.8,   -1.8,   -0.0,   -5.4,   -4.1,    1.9,    1.8,    5.5,   -5.5,    3.7,   -5.5,    1.9,   -0.0,    5.4,   -2.7,    5.4,    5.5,   -5.4,    5.5,    0.0,    5.5,    3.6,   -5.5,    5.5,   -0.1,    0.0,    1.9,   -2.7,    0.0,   -5.7,   -5.5,   -5.5,  999.0,    5.5
2000/07/24 14:10,   -0.1,   -0.1,   -0.1,   -0.2,    0.1,    0.1,   -0.1,   -0.1,   -0.0,   -0.0,   -0.1,   -0.2,   -0.3,   -0.2,   -0.3,   -0.2,   -0.0,    0.1,    0.0,   -0.1,    5.5,    0.2,    0.1,    0.3,   -3.6,  999.0,    1.8,    5.6,    2.8,    2.7,    5.5,   -5.5,  999.0,   -5.5,   -5.5,   -5.5,    5.5,   -5.6,    5.4,    5.5,   -2.8,    5.5,  999.0,   -5.7,    2.7,    5.5,    5.5,    0.0,    1.9,    5.4,    5.7,    5.6,   -3.7,    5.4,    5.4,    2.8,   -5.5,    1.8
2000/07/24 14:20,    0.0,  999.0,  999.0,   -0.3,   -0.3,   -0.1,   -0.1,   -0.2,    0.0,   -0.1,   -0.3,   -0.3,   -0.2,   -0.4,   -0.4,   -0.4,   -0.3,    0.1,    0.1,   -1.7,  999.0,    0.1,   -1.8,   -0.1,    1.8,    0.1,   -5.5,   -5.5,   -5.4,   -0.0,   -4.5,   -5.6,   -2.8,   -0.0,    5.5,   -2.8,    1.9,   -5.5,   -5.5,   -2.7,    0.0,    0.0,   -0.0,    5.6,    5.0,   -0.1,   -5.5,   -0.0,   -1.8,    5.5,  999.0,    0.0,    0.0,   -0.1,    0.1,   -0.0,    1.8,   -3.7
2000/07/24 14:30,   -0.3,  999.0,    0.0,   -0.2,   -0.2,    0.0,   -0.1,   -0.1,   -0.0,    0.0,    0.1,    0.1,   -0.0,   -0.2,   -0.2,   -0.4,   -0.7,   -0.5,   -0.5,   -0.5,   -0.4,   -0.5,   -0.1,   -0.1,   -2.8,   -1.3,    5.5,    5.5,    5.5,    0.0,    5.4,   -5.6,    5.4,  999.0,    5.6,    5.6,   -5.6,  999.0,    5.7,    5.6,    5.5,    0.0,    5.5,    5.5,  999.0,    0.1,   -5.5,  999.0,    5.6,    1.9,   -0.0,    5.6,  999.0,    5.5,  999.0,  999.0,    5.5,    5.5
2000/07/24 14:40,   -0.1,   -0.1,   -0.2,   -0.3,   -0.2,   -0.2,   -0.1,   -0.2,   -0.2,   -0.1,   -0.1,   -0.1,   -0.1,    0.0,   -0.1,   -0.1,   -0.1,    0.0,   -0.0,   -0.0,   -0.1,   -0.0,   -0.1,   -0.1,   -0.2,   -5.4,    5.6,   -5.6,    5.6,   -0.1,    5.6,    5.7,  999.0,    5.5,    5.6,    5.6,    0.0,    5.5,    5.6,    1.9,  999.0,    0.0,    2.8,    5.6,  999.0,   -5.7,    5.6,   -5.6,    5.6,    5.5,    5.5,   -0.0,  999.0,  999.0,    5.4,    5.5,    5.5,    5.6
2000/07/24 14:50,   -0.2,   -0.2,   -0.5,   -0.4,   -0.7,   -0.3,   -0.3,   -0.4,   -0.2,   -0.0,   -0.1,   -0.1,   -0.0,    0.0,    0.1,    0.1,    0.0,  999.0,    0.1,    0.1,   -0.0,    0.0,   -0.0,   -2.8,   -5.4,   -5.5,    0.0,    5.5,   -5.6,    0.1,   -2.7,    5.6,    1.8,  999.0,   -0.0,    1.9,   -1.8,    0.0,   -5.5,   -5.4,   -0.0,    5.6,    2.7,    5.5,    1.9,   -0.0,   -0.0,    5.5,  999.0,    5.5,   -0.0,    5.5,  999.0,   -0.0,    0.0,    5.5,    1.8,   -0.0
2000/07/24 15:00,    0.6,    0.2,    0.3,    0.4,    0.7,    0.5,    0.5,    0.3,    0.3,    0.1,    0.1,    0.2,   -0.0,    0.1,    0.0,   -0.3,   -0.2,   -0.0,    0.1,   -0.3,   -0.2,   -0.2,   -0.1,    0.0,    0.2,  999.0,   -0.0,    5.4,    3.7,   -5.5,    5.5,    1.8,   -0.1,    5.6,   -5.5,    5.4,    1.8,    5.6,    0.0,    5.6,    1.8,    5.5,   -0.1,    5.6,    1.8,    1.8,    5.6,    6.9,    5.5,   -5.6,    5.5,    5.5,    0.1,    1.8,   -5.4,    5.7,   -0.1,   -5.4
2000/07/24 15:10,   -0.0,   -0.0,    0.4,    0.1,   -0.1,    0.0,    0.1,    0.1,    0.2,    0.2,    0.2,   -0.1,   -0.1,   -0.0,   -0.3,   -0.3,   -0.4,   -0.1,   -0.3,   -0.2,   -0.1,   -0.0,   -0.1,   -0.0,   -0.3,   -5.5,   -5.5,    5.5,    5.5,    5.5,    2.8,    0.1,    5.5,    2.8,    5.4,   -0.0,    2.8,    3.7,  999.0,    1.8,    5.6,    5.4,    5.6,   -0.0,    3.7,    5.5,    5.5,    0.1,    0.0,  999.0,    5.6,    0.0,    5.5,   -0.0,   -0.1,    5.6,    0.0,   -5.6
2000/07/24 15:20,   -0.1,   -0.1,   -0.1,   -0.2,   -0.2,    0.0,   -0.1,   -0.1,   -0.0,    0.1,    0.1,   -0.1,   -0.1,   -0.1,   -0.2,   -0.4,   -0.3,    0.0,   -0.1,   -0.2,   -0.3,   -0.1,   -0.0,    2.8,    0.0,    0.2,  999.0,    5.7,    5.4,    5.5,  999.0,    5.5,    5.5,    5.5,    5.5,    5.5,    5.4,    5.6,    1.8,   -5.7,  999.0,    5.4,    5.5,    2.7,    5.5,    5.5,   -0.0,    5.6,    5.5,    5.5,    5.5,    5.6,    5.5,  999.0,    5.5,    1.8,    5.7,   -5.6
2000/07/24 15:30,    0.0,   -0.0,    0.0,    0.1,   -0.0,   -0.0,    0.0,   -0.0,   -0.0,    0.0,    0.0,    0.1,    0.0,    0.0,    0.0,    0.2,    0.3,   -0.0,    0.0,    0.0,    0.1,   -0.0,   -0.1,    0.2,    0.0,  999.0,  999.0,    5.6,    5.5,    5.5,    5.6,    5.5,    5.6,    5.5,    5.6,    5.7,    5.4,    5.5,  999.0,    5.5,    5.6,  999.0,  999.0,    5.4,    5.7,    5.5,    5.5,  999.0,    5.5,    5.6,    5.6,    5.4,  999.0,    5.6,    5.5,  999.0,    5.5,    5.5
2000/07/24 15:40,   -0.0,   -0.0,   -0.1,   -0.2,   -0.2,   -0.2,   -0.2,   -0.1,   -0.1,   -0.1,   -0.0,   -0.0,    0.0,    0.2,    0.4,    0.4,    0.4,    0.4,    0.3,    0.3,    0.1,    0.0,   -0.0,    2.8,   -2.8,  999.0,    0.0,   -0.0,   -0.0,    5.5,    5.5,    5.5,  999.0,   -0.0,  999.0,    5.6,    5.6,    5.5,   -0.0,   -5.6,    5.7,    5.5,    5.5,    5.5,    5.7,   -5.6,   -5.5,    5.5,    5.5,    5.6,    0.1,    5.4,    5.6,    5.4,    5.5,   -5.4,    5.5,   -5.5
2000/07/24 15:50,    0.0,   -0.0,   -0.1,   -0.0,   -0.0,   -0.1,   -0.1,   -0.1,   -0.0,   -0.0,    0.0,    0.1,    0.1,    0.1,    0.2,    0.2,    0.4,    0.1,    0.1,   -0.0,   -0.1,   -0.1,   -1.5,  999.0,  999.0,   -5.5,  999.0,   -1.9,    5.6,   -5.6,   -2.8,   -5.6,    5.5,    5.5,    5.5,   -0.1,   -2.7,    5.5,  999.0,    2.7,   -5.6,    5.5,  999.0,    5.4,    5.5,   -5.6,   -5.6,   -5.6,    5.6,    5.5,   -0.0,   -0.0,    0.1,    5.5,    0.2,    5.5,    2.8,   -0.1
2000/07/24 16:00,   -0.0,    0.0,   -0.0,   -0.0,    0.0,    0.0,   -0.0,   -0.1,   -0.0,    0.1,   -0.0,    0.1,   -0.0,    0.0,    0.1,    0.0,  999.0,    0.1,    0.1,    0.0,    0.1,   -0.0,  999.0,   -3.0,   -5.5,   -5.4,    5.6,   -1.8,    5.6,    0.0,    5.6,   -0.0,   -0.1,    5.5,    5.5,    5.5,    2.8,   -5.5,    0.2,    5.5,    5.5,    5.5,   -2.7,  999.0,    5.6,    5.5,    1.7,    5.5,    5.6,   -5.9,   -5.7,  999.0,    1.8,    5.5,   -0.0,    5.6,    0.1,  999.0
2000/07/24 16:10,   -0.0,   -0.0,   -0.1,   -0.1,   -0.1,   -0.0,   -0.1,   -0.1,    0.0,    0.1,   -0.0,    0.1,   -0.0,    0.0,    0.1,    0.2,    0.4,    0.2,    0.1,    0.1,  999.0,   -0.1,   -5.5,   -5.5,    5.6,   -5.7,  999.0,    5.6,    5.6,    0.1,    5.5,    2.8,   -0.0,    5.5,   -0.8,   -5.5,    0.0,    5.7,  999.0,    5.5,  999.0,  999.0,   -0.0,    2.7,    5.4,    5.6,    5.5,    5.6,   -5.5,    5.5,    5.6,    0.0,    5.5,    5.6,   -0.1,    5.5,    5.5,   -5.4
2000/07/24 16:20,    0.0,   -0.0,   -0.1,   -0.1,   -0.0,    0.0,   -0.0,    0.0,   -0.0,    0.0,   -0.0,   -0.1,   -0.1,    0.1,  999.0,   -0.0,   -0.0,    5.6,    0.1,   -0.1,  999.0,  999.0,   -5.5,    0.1,    3.7,   -0.0,   -2.7,   -1.3,    2.8,   -5.5,    5.6,    0.1,   -0.0,    5.4,   -0.0,   -5.5,   -1.8,   -0.0,    1.9,    3.4,    5.6,    5.5,    5.6,   -5.6,    1.8,    5.7,   -5.5,    5.4,    5.4,   -5.6,    0.0,    5.4,   -5.4,    2.7,    5.5,    5.5,    0.0,   -1.9
2000/07/24 16:30,   -0.0,   -0.0,   -0.0,   -0.0,   -0.0,    0.0,   -0.0,    0.0,   -0.0,   -0.0,   -0.1,   -0.1,    0.0,    0.2,    0.1,    0.0,   -0.0,  999.0,   -0.0,   -0.1,  999.0,   -0.4,  999.0,  999.0,  999.0,  999.0,  999.0,    5.5,    5.6,  999.0,    5.4,    5.5,    5.6,    5.5,  999.0,    5.5,    5.5,    5.6,    5.6,    5.4,    5.5,    5.6,    5.5,    5.5,    5.5,    5.5,    5.6,  999.0,    5.5,    5.5,    5.4,    5.4,    5.5,    5.5,    5.5,    5.5,    5.4,  999.0
2000/07/24 16:40,    0.0,   -0.0,   -0.1,   -0.0,   -0.0,    0.0,   -0.0,    0.0,   -0.0,   -0.0,   -0.0,   -0.1,    0.0,    0.0,    0.0,    0.1,    0.0,  999.0,    0.2,    0.1,    0.0,    0.0,   -5.5,  999.0,  999.0,  999.0,   -5.6,  999.0,    5.6,   -5.5,  999.0,    0.1,   -5.8,    0.0,    5.6,    5.7,    5.5,    5.4,  999.0,    5.6,    5.4,    5.5,    5.5,    3.7,    5.5,    5.6,    5.5,  999.0,    5.6,    5.6,    5.4,    5.5,  999.0,    5.5,    2.8,  999.0,    1.9,    0.0
2000/07/24 16:50,   -0.0,   -0.0,   -0.1,   -0.1,    0.0,    0.1,    0.0,   -0.0,   -0.0,   -0.0,   -0.1,   -0.1,   -0.1,   -0.1,   -0.1,   -0.1,   -0.1,  999.0,  999.0,    0.1,   -0.1,    0.0,  999.0,  999.0,  999.0,  999.0,  999.0,    5.4,  999.0,   -5.4,    5.5,    5.4,    5.4,    5.7,    5.5,  999.0,   -5.5,   -0.0,    5.5,    5.4,  999.0,    5.5,  999.0,   -5.6,  999.0,    5.6,    2.8,    5.5,    5.6,  999.0,    5.5,    5.5,  999.0,    5.5,  999.0,    5.6,    5.6,  999.0
2000/07/24 17:00,   -0.0,   -0.1,   -0.0,   -0.1,    0.0,    0.1,    0.0,   -0.0,   -0.1,   -0.1,   -0.2,   -0.3,    0.0,   -0.0,   -0.1,    0.0,    0.1,   -5.4,   -0.1,   -0.1,   -0.2,   -0.2,   -5.4,   -0.1,    5.6,  999.0,   -5.5,    3.7,  999.0,    5.5,  999.0,    0.0,   -5.4,    5.4,    5.5,    5.5,    0.0,   -0.1,  999.0,    5.7,   -5.3,  999.0,  999.0,    5.4,    5.5,    5.5,    5.4,    5.5,    0.1,    0.0,    5.6,   -5.5,   -0.0,  999.0,    5.6,   -5.4,   -5.5,    5.4
2000/07/24 17:10,    0.0,   -0.0,   -0.0,   -0.0,   -0.0,    0.1,    0.1,    0.1,    0.2,    0.0,    0.0,   -0.1,    0.1,    0.1,    0.1,    0.1,   -0.3,  999.0,   -0.0,   -0.1,    0.0,   -0.0,    0.1,   -5.5,   -5.4,   -5.5,    5.4,   -5.5,   -0.0,   -5.5,   -5.4,   -7.5,   -5.5,    5.6,   -0.0,    5.6,    2.8,    5.5,    5.5,    0.0,    1.8,  999.0,    0.0,   -1.9,   -5.6,    1.8,   -5.6,    5.5,    0.1,    5.5,   -5.4,    5.5,    5.1,  999.0,    5.5,    5.5,    5.6,    5.6
2000/07/24 17:20,    0.0,    0.0,    0.1,    0.2,    0.0,   -0.0,    0.1,    0.3,    0.2,   -0.1,   -0.1,   -0.7,   -0.1,   -0.2,   -0.2,   -0.1,   -0.4,   -0.3,   -0.4,   -0.1,   -0.1,   -0.0,    0.2,   -2.8,    0.2,   -5.5,   -5.5,   -5.5,    3.6,   -0.1,    5.6,    5.5,    5.5,    5.5,    5.5,  999.0,    2.8,    5.6,  999.0,    5.6,    0.0,    5.6,    5.6,    5.5,    5.5,    5.5,    5.5,    5.6,    5.5,    5.6,    5.4,    5.3,   -0.0,    5.5,   -5.5,    5.5,   -5.5,  999.0
2000/07/24 17:30,   -0.0,   -0.0,    0.1,    0.1,    0.0,    0.0,    0.1,    0.1,    0.1,   -0.1,   -0.3,   -0.5,   -0.1,   -0.2,   -0.1,   -0.1,   -0.1,    0.0,    0.1,    0.1,   -0.0,   -0.0,  999.0,   -0.1,    5.6,   -2.7,   -2.9,   -5.5,    5.5,   -2.8,   -6.4,  999.0,    5.5,   -0.0,    5.5,   -1.7,    5.5,    2.8,    2.8,   -0.1,   -5.5,    5.4,    5.5,    5.5,   -5.6,    5.5,    0.0,  999.0,  999.0,    5.5,    0.1,    5.5,    0.0,    0.1,    0.1,    0.1,    0.1,    0.0
2000/07/24 17:40,    0.1,    0.2,    0.3,    0.1,    0.1,    0.0,    0.1,    0.1,    0.0,   -0.0,   -0.1,    0.0,    0.0,   -0.0,   -0.0,    0.0,  999.0,   -0.2,   -0.1,    0.0,    0.0,    0.1,  999.0,  999.0,  999.0,  999.0,  999.0,  999.0,  999.0,  999.0,    5.6,    5.5,    5.5,    5.4,  999.0,  999.0,  999.0,    5.5,    5.6,    5.3,  999.0,    5.5,    5.5,  999.0,  999.0,    5.5,    5.5,  999.0,    5.5,    5.6,    5.4,    5.5,    5.5,    5.3,    5.5,    5.5,    5.5,  999.0
2000/07/24 17:50,   -0.0,    0.1,    0.1,   -0.1,   -0.0,    0.1,    0.1,    0.1,   -0.0,   -0.1,   -0.1,   -0.2,    0.0,    0.0,    0.1,   -0.1,   -0.2,   -0.0,   -0.0,   -0.1,   -0.1,    0.2,  999.0,  999.0,    5.4,  999.0,  999.0,   -0.0,  999.0,    5.4,    5.6,  999.0,  999.0,    5.5,  999.0,    5.4,    5.9,    5.5,  999.0,  999.0,    5.4,    5.5,    5.6,  999.0,  999.0,  999.0,  999.0,  999.0,  999.0,  999.0,    5.6,  999.0,    5.4,    5.9,  999.0,  999.0,  999.0,    5.5
2000/07/24 18:00,    0.0,   -0.0,   -0.1,   -0.1,    0.1,    0.1,    0.1,    0.0,   -0.1,   -0.1,    0.1,  999.0,    0.1,    0.0,    0.2,   -0.1,  999.0,  999.0,    0.0,    0.1,    0.2,    2.7,  999.0,  999.0,    5.6,  999.0,  999.0,  999.0,  999.0,    5.5,    5.6,  999.0,    5.4,    5.7,    5.5,    5.7,  999.0,    5.5,    5.5,    5.4,  999.0,  999.0,  999.0,  999.0,    5.6,    5.4,  999.0,  999.0,    5.5,    5.6,    5.5,  999.0,    5.5,  999.0,    5.3,    5.5,  999.0,  999.0
2000/07/24 18:10,    0.5,    0.2,    0.2,    0.2,    0.0,    0.0,    0.0,    0.1,   -0.1,   -0.2,   -0.1,  999.0,    0.0,    0.0,  999.0,  999.0,  999.0,    0.1,    0.0,    0.0,    0.0,   -0.0,   -5.2,    5.3,  999.0,  999.0,   -5.5,  999.0,  999.0,    5.6,    5.4,    5.4,    5.5,  999.0,  999.0,    5.6,  999.0,  999.0,    0.1,    5.5,  999.0,    5.7,    5.6,    5.4,    5.5,  999.0,    5.4,  999.0,    0.0,   -0.0,  999.0,  999.0,   -5.5,   -5.4,    5.7,  999.0,  999.0,  999.0
2000/07/24 18:20,  999.0,    0.3,    0.4,   -0.0,    0.0,    0.1,   -0.1,    0.1,   -0.1,   -0.1,   -0.1,   -0.0,    0.0,    0.0,    0.1,  999.0,  999.0,  999.0,   -0.1,    0.1,    0.1,    0.2,  999.0,    0.1,  999.0,  999.0,  999.0,    5.6,  999.0,    5.4,    5.4,  999.0,  999.0,  999.0,  999.0,    5.5,  999.0,  999.0,    5.5,  999.0,  999.0,  999.0,    5.5,  999.0,    5.6,    5.3,  999.0,    5.6,  999.0,    5.4,  999.0,  999.0,  999.0,  999.0,  999.0,    5.6,    5.6,  999.0
2000/07/24 18:30,    0.1,   -1.0,   -0.2,    0.2,    0.3,    0.0,   -0.0,   -0.1,   -0.1,   -0.2,   -0.1,  999.0,    0.0,   -0.0,    0.1,  999.0,  999.0,   -0.3,    0.0,    0.1,    0.0,    0.0,    0.1,   -0.2,   -0.3,  999.0,  999.0,    5.3,    5.4,  999.0,  999.0,    5.4,    5.5,  999.0,  999.0,  999.0,    5.7,  999.0,  999.0,    5.4,  999.0,  999.0,    5.6,  999.0,    5.6,  999.0,    5.5,  999.0,    5.4,    5.6,  999.0,    5.6,    5.5,  999.0,  999.0,  999.0,  999.0,    5.5
2000/07/24 18:40,    0.3,    0.3,  999.0,   -0.1,    0.4,    0.0,   -0.1,   -0.1,   -0.2,   -0.0,   -0.0,  999.0,    0.1,    0.0,   -0.0,   -0.1,  999.0,  999.0,    0.0,   -0.2,   -0.1,   -0.1,   -0.0,    0.1,   -0.1,  999.0,  999.0,  999.0,  999.0,    5.4,    5.4,    5.5,  999.0,  999.0,  999.0,    5.8,  999.0,  999.0,  999.0,    5.6,  999.0,  999.0,  999.0,    5.5,    5.7,    5.5,  999.0,  999.0,  999.0,  999.0,    5.4,  999.0,    5.5,    5.5,    5.5,  999.0,    5.5,  999.0
2000/07/24 18:50,    0.2,    0.3,    0.1,    0.8,    0.8,    0.6,    0.4,    0.6,   -0.0,   -0.1,   -0.0,   -0.3,    0.1,   -0.1,    0.1,  999.0,    5.5,  999.0,    5.6,    0.0,    0.1,    0.0,  999.0,    0.1,   -0.1,  999.0,  999.0,  999.0,   -5.5,   -5.6,    5.6,  999.0,  999.0,   -5.5,  999.0,    5.4,  999.0,    5.6,   -5.5,   -5.5,  999.0,  999.0,  999.0,  999.0,   -5.6,  999.0,    5.6,  999.0,    5.4,    5.6,    5.5,  999.0,  999.0,    0.0,    0.1,    5.8,  999.0,    5.6
2000/07/24 19:00,   -0.2,   -0.0,    0.2,   -0.6,   -0.4,   -0.1,    0.0,    0.4,   -1.5,   -0.6,    0.0,    0.6,    0.4,    0.2,    0.1,   -0.0,  999.0,  999.0,  999.0,    0.1,  999.0,   -0.1,   -0.2,   -0.2,   -0.1,  999.0,   -0.2,  999.0,  999.0,  999.0,  999.0,  999.0,  999.0,  999.0,  999.0,  999.0,  999.0,  999.0,  999.0,  999.0,    5.4,  999.0,    5.5,    5.6,  999.0,    5.5,  999.0,    5.7,    5.6,  999.0,  999.0,  999.0,   -5.6,  999.0,    5.3,  999.0,    5.6,  999.0
2000/07/24 19:10,   -0.4,   -0.1,    0.1,   -0.1,    0.1,    0.6,    0.4,   -0.5,   -1.0,    0.5,    0.9,    0.5,    0.1,   -0.0,    0.0,  999.0,  999.0,  999.0,  999.0,    0.1,    0.2,    0.1,    0.0,   -0.1,  999.0,  999.0,    5.5,    5.5,  999.0,    5.5,  999.0,    5.8,  999.0,  999.0,    5.6,  999.0,  999.0,  999.0,  999.0,  999.0,    5.6,  999.0,    5.9,  999.0,    5.6,  999.0,  999.0,    5.5,    5.6,  999.0,  999.0,    5.6,  999.0,  999.0,  999.0,  999.0,    5.7,  999.0
2000/07/24 19:20,   -0.4,   -0.4,    0.3,    0.1,    0.3,    0.3,   -0.0,   -0.0,    0.1,   -0.1,    0.0,    0.2,    0.1,    0.1,    0.0,   -5.4,    5.4,    5.5,   -0.1,   -0.0,    0.0,    0.0,   -0.0,    0.1,   -0.0,  999.0,    5.5,  999.0,    5.4,  999.0,    5.5,    5.4,  999.0,  999.0,  999.0,  999.0,  999.0,   -5.5,   -0.0,    5.5,    5.5,    5.6,    0.0,  999.0,   -5.4,  999.0,  999.0,    5.4,  999.0,    5.4,  999.0,    0.1,   -5.5,  999.0,  999.0,    5.5,    5.4,  999.0
2000/07/24 19:30,   -0.5,   -0.4,   -0.2,   -0.0,   -0.2,    0.1,   -0.8,   -0.4,   -0.1,    0.1,    0.1,    0.1,    0.1,   -0.0,    0.1,  999.0,  999.0,   -0.0,    0.1,    0.0,    0.0,    0.1,   -0.2,   -0.0,  999.0,  999.0,  999.0,  999.0,    5.5,  999.0,  999.0,  999.0,  999.0,  999.0,    5.4,    5.4,  999.0,  999.0,    5.7,    5.5,  999.0,    5.5,  999.0,    5.5,  999.0,  999.0,  999.0,  999.0,    5.3,    5.3,    5.5,  999.0,  999.0,  999.0,  999.0,  999.0,    5.6,  999.0
2000/07/24 19:40,   -0.2,   -0.5,   -0.0,   -0.2,   -0.2,    0.1,   -0.0,    0.0,   -0.0,    0.6,    0.3,    0.1,    0.1,    0.0,    0.0,    0.3,  999.0,   -0.5,   -0.2,   -0.0,  999.0,   -0.5,   -0.3,   -0.2,    2.5,    5.4,    5.7,    5.5,    5.6,    5.5,  999.0,  999.0,  999.0,    5.5,  999.0,    5.5,    5.5,  999.0,    5.5,    5.5,  999.0,  999.0,    6.1,  999.0,    5.4,  999.0,    5.6,  999.0,    5.5,  999.0,  999.0,  999.0,  999.0,  999.0,    5.6,    6.9,  999.0,  999.0
2000/07/24 19:50,   -0.1,   -0.1,   -0.1,   -0.2,   -0.2,    0.3,   -0.2,   -0.1,    0.1,  999.0,   -0.2,    0.0,   -0.0,   -0.0,   -0.2,   -0.2,   -0.0,   -0.0,   -0.2,   -0.1,  999.0,  999.0,  999.0,  999.0,   -0.9,  999.0,  999.0,  999.0,    5.5,  999.0,  999.0,  999.0,  999.0,  999.0,  999.0,    5.5,  999.0,  999.0,  999.0,  999.0,  999.0,    5.6,  999.0,  999.0,    5.5,  999.0,  999.0,    5.4,  999.0,  999.0,    5.5,  999.0,  999.0,  999.0,  999.0,  999.0,  999.0,  999.0
2000/07/24 20:00,   -0.1,   -0.3,   -0.1,   -0.2,   -0.1,    0.1,   -0.3,   -0.4,   -0.6,    0.1,    0.1,    0.1,    0.1,    0.1,    0.0,   -0.3,   -0.6,   -0.4,   -0.1,    0.0,    0.1,    0.2,  999.0,  999.0,  999.0,  999.0,  999.0,  999.0,  999.0,  999.0,  999.0,  999.0,  999.0,    5.6,  999.0,    5.6,    5.1,  999.0,  999.0,    5.4,    5.5,    5.4,  999.0,    5.6,  999.0,  999.0,    5.5,    5.6,    5.4,  999.0,    5.5,    5.5,    5.7,  999.0,  999.0,  999.0,    5.5,  999.0
2000/07/24 20:10,   -0.3,   -0.3,   -0.2,   -0.3,   -0.2,    0.0,   -0.2,   -0.8,   -0.0,    0.4,   -0.1,   -0.0,   -0.0,   -0.3,   -0.0,    0.1,   -0.4,   -0.5,   -0.4,   -0.0,    0.0,   -3.1,  999.0,  999.0,  999.0,  999.0,  999.0,  999.0,  999.0,  999.0,   -0.0,  999.0,  999.0,  999.0,    5.5,  999.0,  999.0,  999.0,   -5.6,  999.0,  999.0,   -5.6,  999.0,    5.5,  999.0,    5.6,  999.0,  999.0,   -0.1,    5.6,  999.0,  999.0,    5.5,  999.0,   -5.4,    0.2,    5.4,  999.0
2000/07/24 20:20,   -0.1,   -0.0,    0.1,    0.2,    0.1,    0.2,   -0.4,    0.2,   -0.0,    0.1,    0.2,    0.0,   -0.0,    0.1,    0.1,    0.1,   -0.1,    0.0,    0.5,    0.1,  999.0,  999.0,   -0.0,   -0.2,   -0.4,  999.0,  999.0,    2.7,  999.0,   -2.8,  999.0,  999.0,  999.0,    5.5,  999.0,    5.5,  999.0,   -5.5,  999.0,   -5.3,    5.6,    5.1,    5.7,  999.0,  999.0,    5.5,  999.0,  999.0,    5.3,   -5.5,    0.1,    5.5,    5.6,  999.0,    5.6,   -5.5,  999.0,    5.5
2000/07/24 20:30,   -0.2,   -0.1,   -0.0,   -0.1,   -0.0,    0.1,   -0.2,   -0.3,   -0.1,   -0.6,   -0.2,   -0.1,    0.0,    0.0,    0.1,    0.1,   -0.3,   -0.1,   -0.1,   -0.0,    0.1,    0.0,    0.2,    0.2,    0.2,  999.0,    0.1,  999.0,  999.0,  999.0,  999.0,    5.6,    5.4,    5.5,  999.0,  999.0,    5.6,    5.5,    5.5,    5.5,  999.0,  999.0,  999.0,    5.6,    5.5,  999.0,  999.0,  999.0,    5.4,    5.6,    5.5,    5.6,  999.0,    5.5,  999.0,  999.0,    5.6,  999.0
2000/07/24 20:40,   -0.1,   -0.1,   -0.1,   -0.1,   -0.1,    0.1,   -0.2,    0.0,   -0.1,   -0.2,   -0.0,    0.0,   -0.0,   -0.1,    0.1,   -0.2,   -0.0,    0.0,    0.2,    0.1,    0.0,   -0.2,   -0.2,   -0.1,   -0.1,  999.0,  999.0,   -0.4,  999.0,  999.0,  999.0,    5.7,  999.0,  999.0,    5.5,    5.7,  999.0,    5.5,  999.0,    5.7,  999.0,  999.0,    4.4,  999.0,  999.0,  999.0,  999.0,  999.0,  999.0,  999.0,    5.5,    5.5,    5.5,    5.4,  999.0,    5.5,    5.4,    5.5
2000/07/24 20:50,   -0.1,   -0.0,   -0.1,   -0.1,   -0.0,    0.1,   -0.0,    0.1,   -0.1,    0.0,    0.1,    0.0,    0.1,   -0.0,   -0.0,   -0.1,    0.0,   -0.0,   -0.1,   -0.1,   -0.1,   -0.2,   -0.1,   -0.2,   -0.0,  999.0,  999.0,  999.0,  999.0,  999.0,  999.0,  999.0,  999.0,  999.0,  999.0,  999.0,    5.4,  999.0,    5.5,  999.0,    5.9,    5.4,  999.0,    5.4,    5.5,  999.0,  999.0,  999.0,    5.6,  999.0,    5.4,  999.0,    5.3,  999.0,  999.0,    5.8,  999.0,  999.0
2000/07/24 21:00,  999.0,   -0.1,   -0.2,    0.0,    0.0,    0.1,    0.3,   -0.0,    0.1,    0.0,    0.1,    0.1,    0.1,   -0.0,    0.1,    0.1,    0.1,   -0.0,    0.0,   -0.1,    0.0,   -0.1,    0.0,    0.1,   -0.2,    5.5,    5.4,  999.0,  999.0,    5.8,  999.0,  999.0,    5.7,  999.0,    5.5,  999.0,    5.4,  999.0,  999.0,  999.0,    5.5,  999.0,  999.0,  999.0,  999.0,  999.0,    5.4,    5.4,    5.4,  999.0,  999.0,    5.6,    5.5,  999.0,    5.7,  999.0,    5.5,    5.2
2000/07/24 21:10,    0.0,    0.1,   -0.2,   -0.1,   -0.1,    0.2,  999.0,   -0.0,   -0.0,   -0.1,   -0.0,   -0.0,    0.0,   -0.0,   -0.1,   -0.1,   -0.4,   -0.3,   -0.2,   -0.2,   -0.1,    0.2,    0.0,    0.0,    0.1,  999.0,  999.0,    0.1,  999.0,    0.4,  999.0,  999.0,  999.0,  999.0,    5.7,  999.0,  999.0,  999.0,  999.0,  999.0,  999.0,    5.5,    5.5,  999.0,  999.0,    5.7,    5.5,  999.0,    5.4,    5.4,  999.0,  999.0,  999.0,  999.0,  999.0,  999.0,  999.0,  999.0
2000/07/24 21:20,    0.2,   -0.2,    0.1,   -0.1,   -0.0,    0.1,   -0.0,   -0.0,   -0.1,   -0.1,    0.0,    0.0,    0.0,    0.0,    0.1,   -0.2,   -0.1,    0.0,  999.0,   -0.1,  999.0,  999.0,   -5.6,    0.0,    0.0,  999.0,    5.4,    0.1,    0.3,   -0.0,  999.0,  999.0,    5.5,  999.0,    5.3,  999.0,    7.3,  999.0,  999.0,  999.0,  999.0,    5.6,    5.4,  999.0,  999.0,  999.0,    5.7,    5.6,  999.0,  999.0,  999.0,  999.0,   -5.7,  999.0,  999.0,  999.0,    5.9,  999.0
2000/07/24 21:30,    0.1,   -0.1,   -0.1,   -0.0,    0.0,    0.2,   -0.1,    0.1,   -0.1,   -0.1,    0.0,    0.0,   -0.0,   -0.0,    0.1,   -0.3,   -0.2,   -0.5,   -0.9,   -0.7,   -0.7,   -1.3,  999.0,   -0.3,    0.1,  999.0,  999.0,  999.0,  999.0,  999.0,  999.0,    0.0,  999.0,    5.5,    5.4,    5.6,  999.0,    5.5,  999.0,  999.0,  999.0,  999.0,    5.3,  999.0,    5.5,  999.0,  999.0,  999.0,  999.0,    5.4,    5.4,  999.0,    5.3,  999.0,  999.0,  999.0,  999.0,  999.0
2000/07/24 21:40,   -0.0,   -0.1,    0.0,   -0.1,   -0.1,    0.1,   -0.1,   -0.1,   -0.1,   -0.1,   -0.1,    0.0,    0.0,    0.1,    0.1,   -0.2,   -0.6,    0.0,   -1.2,   -0.6,   -1.2,   -0.9,   -0.8,   -0.4,   -0.1,   -0.8,  999.0,  999.0,  999.0,    5.4,  999.0,   -5.5,  999.0,  999.0,  999.0,    5.5,  999.0,  999.0,   -5.3,   -4.6,  999.0,  999.0,    5.6,    5.4,    2.8,    0.0,    5.5,   -5.5,    0.0,    5.4,    5.7,  999.0,   -5.5,    5.5,  999.0,  999.0,  999.0,    5.5
2000/07/24 21:50,    0.1,   -0.1,   -0.1,   -0.0,    0.1,    0.1,    0.0,    0.0,   -0.1,   -0.1,   -0.0,    0.0,   -0.0,   -0.0,   -0.0,   -0.1,   -0.1,    0.0,    0.2,    0.3,    0.7,    0.5,   -0.0,    0.1,    0.1,  999.0,  999.0,  999.0,  999.0,  999.0,    0.2,  999.0,  999.0,  999.0,  999.0,    3.3,  999.0,  999.0,  999.0,  999.0,  999.0,  999.0,  999.0,    5.4,    5.4,  999.0,    5.4,  999.0,  999.0,  999.0,  999.0,  999.0,  999.0,  999.0,  999.0,  999.0,    5.4,    5.4
2000/07/24 22:00,   -0.0,   -0.2,    0.1,   -0.1,   -0.1,    0.1,   -0.1,   -0.0,   -0.1,   -0.1,    0.0,    0.0,    0.1,   -0.0,    0.1,    0.3,    0.1,   -0.5,   -1.0,   -1.0,   -0.8,   -0.4,   -0.5,   -0.3,   -0.2,    0.0,  999.0,  999.0,  999.0,  999.0,  999.0,  999.0,  999.0,  999.0,    5.3,    5.7,  999.0,    5.4,    5.3,  999.0,    5.4,  999.0,    5.5,    5.5,    5.5,  999.0,  999.0,    5.5,  999.0,    5.5,    5.3,  999.0,  999.0,  999.0,    5.4,    5.5,  999.0,    5.5
2000/07/24 22:10,    0.1,    0.1,    0.1,   -0.1,   -0.2,   -0.1,   -0.3,   -0.1,   -0.1,   -0.2,   -0.2,   -0.0,   -0.1,   -0.1,    0.1,    0.0,   -0.2,   -0.2,   -0.5,   -0.2,   -0.1,    0.2,    0.0,    0.1,  999.0,  999.0,  999.0,  999.0,  999.0,  999.0,  999.0,  999.0,  999.0,    5.4,  999.0,  999.0,  999.0,  999.0,  999.0,  999.0,  999.0,    5.4,    5.7,  999.0,  999.0,  999.0,  999.0,  999.0,  999.0,    5.6,    5.4,    5.6,    5.4,    5.7,  999.0,  999.0,  999.0,    5.5
2000/07/24 22:20,    0.0,   -0.1,    0.0,   -0.1,   -0.1,    0.1,    0.1,    0.0,   -0.1,   -0.0,    0.0,    0.1,    0.0,    0.0,    0.1,   -0.2,   -0.2,   -0.0,  999.0,  999.0,  999.0,  999.0,    0.0,  999.0,  999.0,  999.0,  999.0,    5.4,    2.7,  999.0,  999.0,  999.0,  999.0,  999.0,    5.5,  999.0,    5.6,  999.0,  999.0,  999.0,  999.0,  999.0,  999.0,  999.0,  999.0,  999.0,  999.0,  999.0,  999.0,  999.0,  999.0,  999.0,  999.0,  999.0,    5.5,  999.0,  999.0,  999.0
2000/07/24 22:30,   -0.0,   -0.2,    0.1,   -0.2,   -0.1,    0.1,   -0.2,   -0.1,   -0.1,   -0.1,   -0.0,    0.1,   -0.0,   -0.0,    0.0,   -0.2,   -0.3,   -0.2,  999.0,  999.0,  999.0,  999.0,  999.0,  999.0,  999.0,  999.0,  999.0,    5.5,    5.5,  999.0,  999.0,  999.0,    5.5,  999.0,  999.0,    5.4,    5.5,  999.0,  999.0,    5.7,    5.5,  999.0,  999.0,    5.4,  999.0,    5.4,    5.5,    5.5,    5.6,    5.6,    5.5,  999.0,  999.0,    5.5,    5.6,  999.0,    5.5,    5.5
2000/07/24 22:40,   -0.0,   -0.1,    0.1,   -0.1,   -0.1,    0.1,   -0.0,   -0.0,   -0.1,   -0.0,   -0.0,    0.1,   -0.0,   -0.1,    0.0,   -0.3,   -0.5,   -0.6,   -1.1,   -0.2,  999.0,  999.0,  999.0,  999.0,   -0.3,  999.0,  999.0,    5.5,  999.0,  999.0,    5.6,    5.6,    5.3,  999.0,    5.5,  999.0,  999.0,    5.5,    5.5,  999.0,  999.0,  999.0,  999.0,  999.0,    5.5,  999.0,    5.5,  999.0,    5.4,  999.0,    5.4,    5.5,  999.0,  999.0,    5.5,  999.0,    5.5,  999.0
2000/07/24 22:50,    0.0,   -0.2,    0.1,   -0.1,   -0.1,    0.1,  999.0,   -0.0,   -0.1,   -0.1,    0.0,    0.1,    0.1,    0.1,    0.1,   -0.1,   -1.1,    0.1,  999.0,  999.0,  999.0,  999.0,  999.0,    0.3,   -0.1,   -0.3,  999.0,    5.4,  999.0,  999.0,  999.0,    5.3,  999.0,    5.7,    5.5,  999.0,  999.0,    5.6,    5.6,    5.6,  999.0,  999.0,    5.4,  999.0,    5.5,    5.3,  999.0,    5.4,  999.0,  999.0,  999.0,  999.0,  999.0,  999.0,    5.6,    5.4,    5.4,    5.4
2000/07/24 23:00,   -0.0,   -0.1,   -0.0,   -0.1,   -0.1,    0.1,    0.0,    0.0,   -0.0,    0.0,   -0.0,    0.1,    0.0,    0.0,    0.1,   -0.0,  999.0,   -0.1,  999.0,    0.1,   -5.6,  999.0,  999.0,    2.8,   -1.0,   -0.1,    5.6,  999.0,  999.0,  999.0,    5.6,  999.0,    5.6,  999.0,  999.0,  999.0,  999.0,  999.0,  999.0,  999.0,    5.4,    5.7,    5.7,    5.5,  999.0,  999.0,  999.0,  999.0,    5.5,    5.7,    5.4,    1.7,    5.4,  999.0,  999.0,    5.5,  999.0,  999.0
2000/07/24 23:10,   -0.0,   -0.2,    0.0,   -0.1,   -0.0,    0.0,   -0.0,   -0.1,   -0.1,    0.0,    0.0,    0.0,    0.0,   -0.1,    0.1,   -0.1,  999.0,   -1.3,   -0.0,   -5.6,   -5.2,  999.0,    0.0,  999.0,   -0.0,    1.8,  999.0,  999.0,  999.0,  999.0,    5.7,  999.0,    5.7,  999.0,  999.0,    5.5,    0.1,  999.0,   -5.5,  999.0,    5.5,  999.0,  999.0,  999.0,    5.6,    5.5,  999.0,    5.7,    5.8,   -5.4,  999.0,    5.5,    5.5,    5.6,  999.0,  999.0,  999.0,  999.0
2000/07/24 23:20,   -0.1,   -0.2,   -0.2,   -0.1,   -0.1,   -0.0,   -0.1,   -0.0,   -0.1,    0.0,    0.0,    0.0,   -0.0,    0.4,    0.2,   -0.0,    0.0,    0.1,   -0.2,    0.3,   -0.6,   -0.8,   -0.2,   -0.1,   -0.2,   -0.7,  999.0,  999.0,    5.7,  999.0,    5.3,  999.0,  999.0,    5.7,  999.0,    5.6,    5.4,  999.0,  999.0,  999.0,    5.6,    5.6,    5.6,  999.0,    5.4,    4.6,  999.0,    5.5,    5.6,    5.6,    5.5,    5.5,    5.5,  999.0,  999.0,    5.6,  999.0,    5.4
2000/07/24 23:30,   -0.2,   -0.2,   -0.0,   -0.1,   -0.1,    0.0,   -0.2,   -0.1,   -0.1,   -0.1,    0.0,   -0.0,   -0.1,   -0.4,   -0.1,   -0.0,   -0.0,   -0.1,   -0.1,   -0.7,   -0.9,   -0.3,   -0.1,   -0.1,   -0.1,   -0.5,    5.5,  999.0,  999.0,  999.0,  999.0,  999.0,    5.3,  999.0,    5.5,    5.6,    5.5,  999.0,    5.6,    5.5,  999.0,  999.0,  999.0,    5.3,  999.0,  999.0,  999.0,  999.0,  999.0,  999.0,    5.6,  999.0,  999.0,    5.5,    5.5,    5.3,  999.0,  999.0
2000/07/24 23:40,   -0.1,   -0.2,   -0.0,   -0.1,   -0.0,    0.1,    0.1,   -0.1,   -0.1,    0.0,    0.1,    0.0,   -0.0,   -0.1,    0.0,   -0.0,   -2.8,   -0.0,    0.4,   -0.9,    0.2,    0.2,   -0.1,   -0.3,   -0.3,   -0.2,  999.0,    5.6,  999.0,  999.0,   -5.5,   -5.5,    5.5,    5.5,  999.0,    5.4,  999.0,  999.0,  999.0,   -5.4,   -5.7,  999.0,  999.0,    5.5,   -5.5,   -0.0,  999.0,    5.5,  999.0,  999.0,  999.0,  999.0,  999.0,    5.8,  999.0,  999.0,    5.4,  999.0
2000/07/24 23:50,   -0.1,   -0.1,   -0.0,   -0.1,   -0.1,    0.2,   -0.0,   -0.1,   -0.0,    0.0,    0.0,    0.0,   -0.1,   -0.3,   -0.0,   -0.1,   -0.2,    0.0,    0.2,    0.1,    0.2,  999.0,    0.1,   -0.2,   -0.1,   -0.1,  999.0,  999.0,  999.0,  999.0,  999.0,    5.6,  999.0,  999.0,  999.0,    5.4,    5.4,  999.0,  999.0,  999.0,    5.6,    5.6,    5.5,    5.5,  999.0,  999.0,  999.0,  999.0,    5.5,    5.5,    5.4,    5.6,  999.0,  999.0,  999.0,  999.0,  999.0,    5.3
